GFSNGP_925_spd_000.txt.gz
Wind_Speed
17 19 20 23 24 24 23 20 18 23 22 22 19 20 12 13 14 17 18 17 17 17 16 22 25 27 20 26 13 6 8 9 6 5 9 12 9 13 15 18 22 24 25 27
9 19 20 20 23 26 25 21 21 20 21 16 18 14 16 19 20 19 15 16 19 18 19 25 22 21 19 22 11 4 4 5 10 11 10 8 12 13 19 22 22 24 25 25
7 10 12 11 15 15 13 17 17 15 21 20 16 15 15 20 19 13 17 18 16 13 19 24 21 14 16 17 12 8 8 5 8 11 12 11 11 17 19 22 22 23 24 24
4 3 6 7 21 24 21 16 17 19 20 13 15 20 20 16 13 14 13 19 19 19 22 19 15 13 15 11 9 2 3 11 14 9 7 10 15 18 20 21 22 23 23 23
3 9 18 15 18 11 18 13 15 11 19 22 21 20 16 12 13 14 16 16 22 23 18 13 12 12 12 8 7 9 15 5 3 4 9 13 17 17 19 21 22 22 20 21
4 13 15 2 17 19 12 15 11 15 20 18 13 13 12 16 15 13 17 22 19 14 14 16 15 11 7 7 10 6 3 3 5 9 12 16 15 18 20 20 22 21 25 21
10 9 9 14 15 12 7 5 17 14 16 17 13 7 15 18 14 17 20 18 15 14 16 14 9 5 9 10 8 9 8 6 8 12 15 16 17 19 19 22 22 24 17 20
4 5 10 3 8 3 12 15 15 15 12 15 16 16 15 15 10 12 15 15 14 13 10 7 6 7 9 12 11 7 7 9 11 13 15 16 18 20 20 22 20 17 21 23
9 8 19 23 24 15 24 18 18 15 18 11 17 18 15 14 12 10 8 12 11 10 6 8 9 8 9 9 8 9 10 11 13 14 16 15 19 19 20 17 18 19 18 22
15 16 24 22 24 21 18 16 19 18 14 18 17 15 16 12 9 8 12 11 9 8 8 8 5 5 6 5 8 10 11 12 13 15 15 16 18 17 16 17 16 16 21 21
22 24 21 20 18 21 20 17 11 14 13 11 14 16 13 10 11 11 10 7 6 7 8 9 5 4 4 6 8 10 11 12 13 13 15 17 16 15 16 14 19 21 21 21
18 21 19 25 22 23 18 10 16 12 12 14 15 13 13 11 13 10 8 7 7 9 7 4 4 3 4 6 7 10 10 11 13 14 15 15 16 16 16 19 21 22 18 19
16 24 27 24 19 15 15 13 13 13 12 12 13 14 15 10 8 10 10 10 10 8 7 4 4 5 6 10 11 8 9 11 12 13 14 15 15 16 17 18 19 20 18 19
25 18 13 14 12 14 9 13 20 17 16 16 10 11 9 10 9 10 9 7 7 7 5 5 7 8 5 6 8 9 10 12 12 11 14 15 15 16 18 15 18 21 19 20
14 12 11 11 14 15 16 16 13 11 10 11 10 7 8 10 11 13 7 6 8 7 3 4 8 10 8 9 10 10 13 12 8 10 13 16 14 16 16 15 17 18 19 22
10 11 10 11 13 13 14 15 13 9 8 6 4 6 10 12 12 9 6 6 7 6 6 7 8 8 9 9 9 12 14 7 6 11 13 13 14 15 15 14 15 15 15 18
4 7 7 9 13 15 15 12 8 6 7 6 8 10 10 10 12 8 8 9 8 9 10 11 11 8 10 9 10 12 12 11 12 12 12 12 12 14 14 13 14 13 14 18
10 10 14 12 13 14 11 7 4 6 6 7 8 8 8 8 6 10 9 11 12 13 13 12 9 7 10 9 10 10 9 10 11 13 11 12 13 12 12 12 13 13 13 16
15 13 17 17 16 10 12 5 4 8 9 5 6 6 8 9 8 9 11 12 13 12 7 5 7 8 8 10 11 8 7 8 10 12 10 10 11 12 11 11 11 13 13 14
18 22 22 19 18 11 11 10 9 7 6 3 5 6 6 6 8 10 11 12 14 9 11 8 8 9 8 9 8 7 6 7 8 9 10 11 10 10 9 10 9 11 13 13
12 17 17 15 13 13 13 12 7 7 6 5 2 4 5 6 6 7 9 7 7 13 13 13 13 14 9 6 5 6 6 7 7 7 9 9 10 10 9 9 9 10 11 12
14 12 14 11 10 12 13 12 9 9 7 5 3 3 3 6 5 6 7 5 9 12 14 13 14 15 10 8 7 6 8 6 6 6 7 7 8 9 9 9 9 8 10 10
14 13 16 14 12 15 15 13 10 11 9 5 5 4 4 5 5 6 4 7 11 12 14 14 14 13 11 9 5 7 8 6 5 5 5 5 6 7 8 7 7 7 8 9
14 14 15 16 18 13 7 10 14 12 9 7 6 5 4 4 6 4 6 9 11 12 14 14 13 13 8 4 6 8 7 7 5 5 3 5 2 5 4 5 6 6 7 7
14 12 16 17 13 10 11 13 12 9 8 7 5 3 2 3 4 10 11 12 12 13 14 14 13 12 5 6 8 8 8 7 6 4 3 3 2 3 3 2 3 4 5 5
9 12 13 16 13 11 14 13 10 12 10 7 5 5 3 4 6 9 11 10 10 13 13 12 10 12 10 9 10 9 9 7 7 5 4 3 2 2 1 1 2 3 2 2
10 14 12 10 12 13 8 9 8 6 6 3 2 3 1 5 7 9 9 10 10 11 12 12 12 11 11 10 10 9 9 8 8 6 6 4 4 3 3 1 1 1 1 3

GFSNGP_925_spd_003.txt.gz
Wind_Speed
8 7 10 14 19 20 15 17 12 23 18 12 8 6 5 8 11 9 6 6 9 12 10 17 22 23 12 19 24 23 13 10 11 9 4 3 3 1 9 14 18 20 21 22
6 11 10 8 20 21 19 14 10 14 19 8 6 11 13 12 13 9 8 9 13 12 16 18 21 9 15 17 20 11 5 8 7 7 3 4 5 12 16 15 17 18 21 20
15 4 5 7 13 4 6 14 13 8 4 15 18 18 13 12 5 6 11 13 12 11 15 18 10 10 17 19 17 8 1 2 8 9 4 10 15 9 13 15 17 18 21 23
4 3 4 8 14 21 16 9 7 8 14 15 13 14 15 11 4 12 16 11 7 14 17 9 12 18 21 19 7 5 8 8 1 6 10 3 7 11 14 13 18 23 24 21
2 3 8 9 9 3 11 17 4 8 19 16 14 15 9 2 5 12 12 8 16 16 9 13 21 19 16 13 10 8 8 5 7 7 7 9 11 10 14 19 22 21 16 24
1 4 7 8 3 6 7 11 5 14 8 15 9 10 10 5 11 13 14 17 10 7 11 15 14 10 12 15 3 13 13 14 12 12 12 10 11 14 17 16 20 21 24 12
2 5 7 7 5 1 4 9 6 3 8 11 8 6 11 13 9 12 7 11 12 14 11 7 8 11 10 15 17 13 11 10 10 10 11 12 15 14 18 18 21 14 18 24
3 4 8 2 3 3 6 4 7 4 3 13 13 7 11 10 9 6 8 12 15 13 9 8 8 8 16 15 9 10 10 9 9 12 14 14 13 17 18 18 13 17 21 23
8 6 5 10 12 10 15 18 8 5 7 7 14 11 8 6 6 6 9 11 10 8 10 8 4 6 9 5 7 11 12 12 14 15 14 11 14 18 17 13 15 20 18 19
7 9 16 14 20 19 14 7 8 5 8 10 11 9 7 6 6 6 11 12 8 5 5 5 3 4 5 4 10 12 13 14 14 11 14 15 15 15 11 16 18 18 17 18
13 19 19 16 11 11 11 5 5 6 8 9 4 5 4 5 5 8 10 10 9 7 9 2 6 4 5 7 10 12 13 12 12 14 14 16 14 14 16 19 17 19 19 18
16 19 14 20 9 6 5 6 10 9 6 6 6 2 5 7 9 10 12 10 10 9 7 6 4 3 4 8 11 12 12 13 12 13 14 15 15 17 17 16 16 18 17 15
14 12 17 12 9 14 12 7 12 9 3 1 3 3 4 4 10 8 7 11 5 8 3 2 3 6 8 7 11 11 11 12 12 13 12 15 16 19 20 15 19 20 16 17
20 18 8 5 4 4 7 5 10 10 4 6 8 7 8 8 5 5 8 3 3 6 2 1 1 2 4 5 9 12 13 15 14 6 13 14 18 15 17 15 19 21 17 20
4 3 2 3 10 9 7 5 6 5 3 5 2 5 8 9 9 9 6 4 6 8 2 3 6 8 7 7 9 11 15 16 6 7 12 13 12 13 14 15 18 17 15 20
9 8 8 7 10 8 6 7 5 4 5 7 5 7 9 9 9 9 6 6 8 9 11 12 14 10 7 9 8 9 10 10 8 12 13 11 10 13 13 13 17 15 12 16
6 2 7 5 5 6 5 4 3 4 5 8 7 9 9 8 7 7 10 9 10 12 13 15 17 10 8 8 8 12 10 8 14 14 13 10 12 12 11 11 14 13 12 15
6 9 8 8 9 6 7 8 9 7 7 11 10 8 8 5 5 9 10 12 12 12 11 11 9 7 7 8 10 12 9 8 13 13 10 10 11 10 10 10 11 12 11 14
10 7 13 16 16 7 8 9 10 12 14 11 5 8 7 8 5 7 9 11 11 10 11 14 10 9 8 8 10 9 7 6 11 9 10 11 10 10 8 8 8 10 11 12
11 16 19 18 23 18 14 15 13 14 14 6 8 8 8 3 4 6 8 9 7 9 12 14 13 13 14 10 7 6 6 9 9 7 9 9 10 10 7 7 7 9 10 11
8 14 17 16 16 15 14 17 15 14 10 10 9 8 6 3 2 5 5 5 5 9 10 11 12 13 14 7 5 5 5 10 6 7 8 7 8 9 7 7 6 7 9 9
10 11 16 18 14 17 17 20 15 15 10 11 9 6 4 6 2 3 5 2 7 9 10 11 11 11 11 9 6 5 8 10 8 6 5 6 5 6 6 6 6 7 7 8
17 19 19 17 12 15 17 17 16 13 12 11 8 7 6 7 3 3 3 4 8 8 9 10 11 11 11 7 5 6 9 10 7 5 5 4 4 5 4 5 4 5 6 6
21 23 21 17 13 15 12 14 12 13 14 10 9 7 6 4 1 1 5 9 8 8 10 11 11 12 10 4 5 8 9 10 8 6 5 4 2 2 2 2 3 4 5 5
25 25 23 14 10 12 16 15 11 14 13 11 8 7 3 3 3 6 8 8 8 8 10 10 9 9 11 7 8 9 9 10 8 5 4 3 2 2 1 1 2 3 3 3
21 17 19 13 14 17 15 12 13 16 15 12 11 9 6 5 4 5 7 5 6 8 10 10 10 9 9 10 9 9 10 9 9 8 5 4 4 3 2 1 1 2 1 2
22 20 14 16 16 19 15 14 12 11 14 13 9 7 5 2 3 5 6 7 6 8 10 11 10 11 11 10 8 8 9 9 8 8 7 6 5 5 5 3 3 1 1 3

GFSNGP_925_spd_009.txt.gz
Wind_Speed
6 7 6 14 13 16 9 11 6 9 10 13 6 5 7 7 7 9 12 9 7 11 12 18 19 21 20 15 22 23 23 19 13 4 3 4 5 9 12 16 13 18 14 12
4 6 10 15 14 11 14 11 8 10 10 5 2 5 6 9 11 11 10 8 8 9 14 16 19 23 18 21 20 15 11 5 4 5 6 9 11 12 13 19 16 10 12 16
5 6 9 7 7 4 3 5 5 5 7 2 6 8 8 10 9 10 12 7 12 11 15 21 22 15 20 21 13 8 6 6 9 9 7 10 13 11 8 8 10 13 13 14
3 3 1 8 3 6 9 10 6 6 5 6 8 10 8 10 11 8 8 12 14 17 17 18 19 22 18 14 12 5 12 13 12 11 11 12 12 10 9 10 11 13 14 14
2 3 6 9 9 2 3 7 4 5 4 9 13 7 7 8 1 5 9 15 19 16 18 20 18 11 9 16 13 11 12 14 18 17 13 10 9 12 10 13 13 14 10 12
3 4 5 8 4 3 0 6 1 1 6 16 7 10 9 5 7 9 18 15 14 19 22 20 9 1 4 3 1 3 8 10 7 9 10 11 11 11 12 14 13 8 14 19
2 6 8 9 6 1 4 5 5 5 13 12 8 7 6 7 10 15 15 10 16 22 16 10 6 3 3 5 3 5 6 7 10 11 11 10 11 13 14 12 10 16 19 21
2 3 8 4 1 5 7 3 6 9 7 8 4 5 7 10 10 14 13 18 22 15 12 11 8 7 8 3 4 7 10 11 11 11 10 12 12 13 12 11 16 18 20 25
9 6 5 4 6 7 6 7 5 4 4 5 5 8 11 13 9 6 14 17 14 11 14 11 9 9 6 3 6 10 11 12 12 11 11 11 12 14 11 15 17 18 20 21
4 7 12 8 15 18 10 3 3 5 8 12 10 11 14 13 7 8 12 12 11 11 11 9 6 8 5 5 6 8 11 13 14 12 12 10 15 14 12 16 19 17 20 20
13 14 15 17 14 5 5 7 9 7 4 9 11 14 12 6 7 13 13 10 9 10 9 11 13 11 7 5 6 8 10 12 12 11 11 14 14 14 15 15 14 18 20 18
11 15 13 15 5 4 4 3 3 6 9 14 12 9 10 6 15 14 16 10 12 14 13 15 14 10 8 8 8 8 11 13 13 15 15 13 15 16 11 14 14 15 16 16
15 14 6 5 9 8 5 0 13 14 16 10 12 10 14 10 14 15 12 11 14 19 13 14 13 11 9 10 9 9 10 13 16 16 10 12 14 16 15 16 13 15 15 14
8 2 2 5 1 2 9 12 14 14 15 13 13 18 18 15 17 12 10 11 12 10 11 10 9 6 7 9 9 9 10 11 9 10 12 13 15 12 13 13 15 17 15 15
4 4 6 6 6 5 11 14 12 7 6 13 18 15 17 15 12 14 12 10 10 9 9 10 10 10 9 8 7 8 8 7 8 9 13 13 11 11 12 11 13 14 15 17
6 6 5 1 5 6 6 7 7 7 7 13 13 16 18 15 15 12 8 7 10 9 9 9 10 11 10 8 7 6 9 7 6 9 12 10 10 10 10 10 11 11 12 14
5 4 5 4 6 7 6 6 7 8 10 11 14 18 19 18 14 9 8 8 8 2 4 8 10 11 9 6 7 8 9 10 7 10 9 9 10 10 10 9 9 9 9 12
8 5 2 6 7 6 8 9 14 14 11 17 19 16 17 12 12 13 8 7 1 1 4 4 9 9 8 8 9 10 8 7 7 9 8 10 9 10 8 8 7 8 9 10
4 7 12 10 12 12 13 15 16 17 19 20 19 16 14 16 14 11 5 2 1 2 4 7 7 8 10 9 11 8 7 5 8 9 9 9 9 9 8 7 6 6 7 8
13 16 16 17 19 19 19 21 17 17 17 17 19 21 15 14 11 9 5 5 5 2 5 6 7 8 10 10 9 5 6 5 9 11 10 9 9 8 7 7 5 5 6 5
15 19 19 20 22 27 24 26 25 21 23 20 17 17 16 12 11 9 7 6 4 3 5 7 7 8 9 9 8 8 5 7 9 11 10 9 9 7 7 6 4 5 5 4
18 16 20 23 21 24 29 25 20 22 20 18 19 18 12 11 9 9 12 10 5 5 7 7 8 9 10 12 9 4 5 8 10 11 12 10 9 8 7 6 5 5 4 3
20 21 21 22 21 22 28 27 24 21 21 19 17 16 12 10 9 7 4 7 7 8 7 7 9 9 8 11 6 6 7 8 10 12 12 11 10 9 8 8 6 6 5 4
22 24 23 27 27 22 14 25 27 22 20 19 17 11 8 9 10 12 8 6 6 8 7 7 8 8 7 8 8 8 9 10 10 13 11 10 11 10 9 8 7 7 5 4
24 25 24 23 18 17 21 25 26 24 18 16 12 11 8 9 10 7 5 7 9 7 5 7 8 7 8 9 9 8 9 11 11 10 9 10 10 9 8 8 7 6 5 5
21 19 21 22 22 23 22 21 16 17 14 13 14 13 11 13 12 9 7 6 6 6 7 7 9 9 8 10 11 12 11 9 10 11 10 9 9 9 9 9 8 7 6 6
19 17 16 18 20 21 21 20 17 14 16 15 16 14 15 16 15 11 7 7 7 8 8 8 10 10 10 10 11 11 11 12 11 11 11 10 10 11 11 10 9 8 7 7

GFSNGP_925_spd_015.txt.gz
Wind_Speed
5 9 5 8 13 10 12 12 7 13 15 18 14 10 4 9 11 13 14 11 9 8 11 12 14 16 16 19 17 14 8 5 6 9 8 7 8 11 12 10 12 12 10 10
4 6 5 9 12 11 12 14 13 18 19 14 6 3 7 12 12 13 10 5 8 10 12 12 15 16 19 17 12 9 4 4 6 7 7 8 11 13 13 13 12 11 12 13
3 5 9 6 3 4 3 6 4 5 7 1 4 7 12 15 11 7 5 7 9 9 12 16 17 19 20 15 10 5 3 3 6 9 12 12 12 12 13 12 12 12 12 11
3 4 2 1 4 7 9 12 7 9 6 3 9 13 11 7 5 4 4 7 12 13 14 15 18 17 12 6 8 7 5 8 11 11 10 12 12 12 12 11 12 13 12 10
2 3 7 10 2 2 3 6 3 2 3 13 17 16 7 3 3 2 8 14 14 14 12 16 15 11 8 9 6 6 7 9 9 10 11 12 12 12 11 12 12 11 11 14
3 3 5 5 1 2 3 8 1 3 16 19 12 8 11 5 5 14 15 15 16 13 13 13 13 12 13 14 9 5 7 10 10 11 10 10 10 11 11 11 11 11 14 14
5 5 8 9 5 1 2 4 3 5 11 12 6 1 2 6 15 15 17 18 15 10 12 12 13 13 12 8 6 7 12 11 11 10 9 9 10 9 11 13 10 15 16 17
3 4 7 2 2 2 2 7 9 10 6 3 4 4 6 11 12 18 20 20 14 13 13 13 13 11 9 10 12 10 12 11 9 9 10 10 10 11 12 12 13 15 16 16
8 6 2 3 8 6 4 3 4 2 6 2 5 7 10 10 12 18 19 18 14 14 15 14 13 9 11 15 12 12 11 9 8 9 9 10 11 13 13 13 13 15 17 19
1 7 9 10 9 2 3 2 2 3 6 5 9 11 13 12 13 15 17 18 17 16 17 15 14 14 16 17 16 11 10 8 7 7 10 11 11 11 12 14 14 15 17 19
6 15 13 7 1 2 5 4 4 6 8 9 10 13 12 12 13 15 16 18 18 17 17 16 16 18 16 16 11 14 11 8 6 7 9 10 9 10 11 11 11 15 17 18
7 9 7 4 4 5 2 2 4 6 9 13 12 12 12 14 14 13 17 20 20 18 14 15 14 15 14 11 9 10 10 7 5 7 8 8 11 13 10 10 12 11 13 13
8 4 3 4 5 1 2 4 8 9 11 11 13 11 14 15 14 17 16 17 18 18 17 14 12 11 10 10 9 8 7 7 6 7 6 8 11 13 14 13 12 12 14 14
3 5 6 3 3 2 5 7 10 11 10 10 12 14 12 13 16 15 17 21 20 18 14 10 10 8 8 9 9 8 7 5 6 6 6 8 10 10 11 11 13 14 14 15
11 12 11 6 5 6 7 8 9 9 11 14 13 14 15 16 17 18 19 19 17 16 10 7 6 7 8 8 9 7 6 7 7 5 8 9 9 9 9 11 12 12 13 14
9 7 3 2 6 8 9 11 10 11 12 14 15 17 15 15 18 20 21 20 16 13 11 6 5 8 8 7 7 8 8 7 6 6 8 8 8 9 10 10 11 12 12 13
3 4 4 7 9 9 10 13 13 15 17 16 19 18 18 19 19 19 19 21 17 14 9 6 5 5 7 8 8 7 9 7 5 5 8 8 8 9 9 9 10 10 10 11
2 3 6 7 9 10 11 14 15 18 17 21 25 22 19 15 14 21 20 22 14 10 8 5 4 5 7 8 8 9 10 7 6 7 9 8 8 8 8 8 9 8 9 10
5 7 10 11 12 13 14 16 19 23 27 27 24 20 22 21 20 20 19 17 12 8 5 3 3 5 7 7 8 9 8 6 6 6 8 10 8 7 8 8 8 7 7 8
10 14 15 17 21 20 18 23 25 23 27 24 25 21 19 18 19 18 19 14 13 8 5 2 4 6 6 8 8 10 10 10 7 6 9 10 9 7 8 8 8 6 6 7
12 15 16 18 20 24 24 24 23 23 28 25 22 21 20 22 20 19 11 10 11 8 9 5 6 7 7 7 9 12 8 7 6 8 7 9 11 8 8 8 8 7 6 5
13 13 19 21 19 22 25 24 24 25 26 26 26 21 22 21 18 17 15 15 9 7 10 6 7 5 6 7 7 9 7 7 8 8 8 10 10 8 8 8 8 7 7 6
15 18 19 20 19 20 27 26 25 25 27 25 23 23 21 19 17 9 7 6 8 10 10 6 6 5 7 9 7 7 8 7 8 9 9 12 11 9 9 8 8 8 7 6
18 20 20 22 23 21 17 24 25 24 24 26 26 26 21 15 15 12 11 8 6 6 7 7 6 6 8 9 7 8 10 10 10 8 10 10 11 10 10 9 8 8 7 6
20 20 19 18 16 16 19 21 22 22 24 23 22 24 22 19 13 5 4 8 7 7 8 7 6 7 8 7 6 7 8 10 11 11 12 11 10 11 10 10 9 8 8 7
16 13 14 16 16 18 20 19 18 20 22 22 22 20 20 13 8 8 7 6 7 4 5 7 8 7 7 7 7 7 8 10 12 12 12 12 12 11 11 11 10 9 9 8
19 16 18 17 14 16 18 18 18 19 20 22 21 19 15 8 9 10 12 12 8 6 5 8 9 9 8 8 8 8 9 12 12 12 12 11 11 13 13 12 11 10 10 9

GFSNGP_925_spd_021.txt.gz
Wind_Speed
9 12 12 12 13 13 14 15 14 17 17 16 13 11 11 9 10 14 16 15 14 15 16 15 13 13 15 16 18 18 17 16 17 10 13 12 14 15 16 18 19 19 19 19
4 6 9 13 16 17 16 10 14 13 16 8 8 10 10 15 16 15 16 14 13 16 16 15 16 16 16 18 18 16 16 17 15 12 14 15 15 16 18 18 18 18 18 19
4 10 13 5 2 1 4 7 8 11 11 12 10 13 15 12 14 12 12 11 12 14 15 16 18 16 19 18 19 19 17 18 14 13 15 15 16 17 17 18 18 19 19 18
3 6 3 4 6 12 10 8 8 11 11 7 10 17 22 9 10 10 8 12 14 16 18 19 21 19 21 21 22 22 23 14 14 12 14 15 15 16 17 18 18 19 19 18
2 5 13 10 3 4 9 13 13 7 7 14 17 16 7 5 8 12 12 14 17 19 21 23 23 22 21 24 24 25 22 20 13 14 16 14 15 15 17 17 19 19 19 18
3 3 4 3 1 0 5 12 8 9 16 17 16 13 10 9 16 14 16 18 20 20 23 24 26 25 25 26 26 26 22 14 15 16 15 13 14 15 16 19 19 20 16 19
6 5 7 9 3 4 6 3 11 13 9 9 8 9 12 14 13 16 19 21 21 22 22 26 27 28 28 28 26 25 19 16 16 15 16 13 12 16 18 20 21 12 13 17
4 4 6 3 5 1 8 11 8 7 6 6 10 11 10 11 14 18 20 23 23 23 24 27 28 28 30 29 29 26 22 16 12 8 11 13 14 17 18 20 19 15 16 17
8 5 9 7 10 7 5 7 7 4 4 9 10 11 12 13 15 20 24 25 25 25 25 26 27 27 29 29 25 23 22 19 13 11 11 14 12 17 16 17 15 14 16 18
8 8 12 8 8 9 7 5 1 5 7 8 10 11 14 15 18 23 25 25 25 25 25 26 27 29 25 25 23 21 18 18 14 11 11 12 14 15 15 14 12 14 17 17
13 16 12 4 7 5 4 3 6 3 7 8 10 14 16 16 21 23 25 25 26 25 24 25 27 27 26 21 16 17 18 16 15 11 9 9 11 13 12 10 7 12 14 15
8 6 3 1 5 2 5 4 4 6 8 13 17 16 21 20 23 23 25 27 26 27 27 27 27 25 21 16 13 15 15 14 13 9 9 8 10 12 9 9 11 11 9 8
7 5 2 8 5 6 3 3 6 10 14 14 20 21 22 21 25 26 27 28 27 29 28 27 25 20 15 11 11 10 12 11 10 8 4 7 8 9 12 10 10 11 8 8
2 4 4 3 2 3 2 6 9 13 17 19 21 22 23 24 27 27 27 28 26 25 24 23 20 16 9 11 10 9 9 9 6 7 5 6 7 9 10 10 12 12 7 9
4 2 2 5 4 2 6 10 11 12 16 18 20 20 21 23 26 28 29 27 23 20 21 21 19 14 10 8 8 8 8 8 6 7 6 6 7 8 9 9 11 12 12 11
7 5 4 0 3 6 9 11 12 12 16 18 19 20 23 26 27 27 26 22 17 18 18 19 16 11 8 8 10 10 7 6 6 6 6 6 7 7 8 9 11 11 12 11
6 4 1 4 6 8 10 11 13 15 17 18 20 22 23 22 22 23 24 22 22 22 20 16 13 9 8 9 9 9 7 7 7 8 7 6 8 8 8 9 10 10 10 5
3 2 3 5 7 8 9 13 13 15 16 20 23 20 19 19 20 24 24 24 23 20 16 14 11 8 8 9 7 8 8 8 8 8 7 7 7 9 8 9 9 9 10 8
1 3 6 8 10 10 11 14 15 16 20 19 18 19 21 22 22 23 24 23 21 17 15 9 8 7 7 8 7 8 7 8 9 9 9 7 8 8 9 9 9 9 9 9
5 7 9 10 10 10 13 15 17 16 16 18 20 19 22 20 20 20 22 21 21 19 9 7 8 7 8 8 8 8 7 10 11 10 9 9 9 9 9 9 9 9 9 7
8 10 10 10 12 14 18 18 18 17 19 18 17 19 21 22 21 20 19 17 20 11 9 11 10 8 7 7 6 9 8 8 9 9 10 9 9 9 10 9 9 8 8 7
10 11 12 16 15 15 14 14 13 20 21 18 16 19 21 20 18 19 20 21 20 11 7 11 11 11 9 8 9 9 8 8 9 9 10 10 9 10 10 9 9 8 8 8
13 14 14 14 16 16 16 19 19 16 15 18 19 20 19 20 20 18 16 17 14 11 11 12 13 13 11 10 10 12 13 11 11 12 12 12 9 9 9 9 9 9 9 9
14 14 15 15 15 14 14 15 13 15 19 21 20 17 19 20 22 19 16 18 15 12 11 12 13 13 12 13 13 14 13 13 12 13 12 13 13 12 10 11 10 9 9 9
15 15 15 15 13 14 15 15 15 16 15 18 19 16 17 18 19 27 22 18 14 14 13 12 13 14 14 15 15 14 13 13 12 12 12 13 13 13 13 12 11 11 10 10
16 16 17 18 17 16 14 15 16 17 17 20 20 19 20 22 23 23 20 16 15 13 14 14 13 12 13 16 16 15 14 13 12 11 12 13 13 13 13 13 13 12 12 11
16 17 17 17 15 15 14 13 14 17 17 18 22 21 21 25 23 23 20 18 18 19 20 19 18 16 15 15 18 16 15 14 13 12 12 13 13 13 13 13 13 12 13 11

GFSNGP_925_spd_024.txt.gz
Wind_Speed
7 9 8 9 11 11 12 12 9 11 16 11 8 7 10 14 13 14 14 12 13 12 15 15 16 15 16 14 17 14 16 16 16 19 5 7 10 14 17 18 17 18 20 20
3 5 10 13 15 13 13 13 10 11 12 11 5 14 13 13 16 13 12 12 14 14 17 16 15 16 15 16 16 16 15 16 20 7 9 10 11 14 16 16 15 17 18 19
3 9 10 3 3 6 8 7 9 5 10 8 14 13 14 13 13 11 13 12 13 14 16 16 18 20 22 17 19 18 24 21 20 10 12 10 12 13 15 13 15 15 17 17
2 4 2 4 14 11 7 6 9 11 9 13 10 12 16 11 11 13 13 13 13 15 16 16 18 22 22 20 22 21 21 25 25 10 11 9 11 13 10 12 15 17 16 11
1 3 9 9 3 5 5 9 9 7 12 12 14 16 7 10 12 11 12 15 17 18 21 20 21 21 24 27 30 29 25 23 25 17 13 10 11 11 9 13 17 14 14 13
2 2 3 3 7 5 5 8 9 11 10 11 12 7 5 11 12 14 16 18 21 22 19 19 18 23 24 25 28 25 25 22 17 21 21 7 8 11 13 15 13 14 13 14
5 5 6 8 6 1 3 3 8 7 6 9 5 4 9 10 12 17 19 20 23 24 23 24 25 24 23 25 25 28 28 26 22 16 12 8 7 12 15 14 14 11 12 18
4 3 6 1 3 2 5 7 6 7 6 5 6 7 8 10 12 17 19 23 25 24 24 23 23 23 21 22 25 25 24 25 23 17 15 8 8 11 12 13 9 12 16 18
9 5 7 7 4 6 7 7 5 5 4 7 7 8 10 10 13 18 22 23 25 23 25 26 23 21 22 22 20 21 22 20 21 19 13 11 11 12 12 10 11 12 14 17
3 8 9 6 10 11 6 4 3 4 5 5 7 8 10 12 14 18 20 22 21 25 23 22 23 22 19 20 21 20 16 19 18 17 14 11 8 12 13 12 10 10 12 14
9 11 4 9 7 4 3 1 3 2 5 5 7 11 12 12 16 18 20 21 25 22 21 23 27 23 22 20 18 14 16 16 18 17 12 8 8 11 11 9 10 11 11 11
7 1 3 5 6 3 2 4 2 3 6 9 12 11 17 16 19 20 22 24 23 23 24 22 24 23 22 18 10 12 12 14 15 16 13 10 10 12 12 14 13 13 14 11
2 8 9 7 4 4 2 1 1 5 8 9 14 16 17 18 19 23 22 24 24 24 21 21 22 20 18 12 10 9 8 12 12 12 9 9 9 9 12 14 13 15 13 10
7 8 4 5 3 6 4 1 3 8 11 13 14 15 17 17 20 21 22 24 25 25 19 20 18 18 17 9 10 10 9 10 8 7 9 9 10 12 11 12 12 14 12 9
4 3 6 9 5 6 2 4 6 8 11 12 14 14 15 17 20 21 23 23 22 23 22 20 15 19 17 13 11 11 13 8 8 11 10 9 10 11 11 11 12 14 13 7
7 8 8 4 2 2 3 6 7 8 11 12 12 11 14 18 18 21 20 21 21 22 24 23 22 21 13 10 10 12 9 7 10 9 9 9 8 10 11 10 11 12 12 7
7 6 5 1 1 3 6 8 8 10 11 11 11 15 18 18 18 19 20 20 23 26 26 24 22 16 12 9 11 12 9 9 9 11 11 8 9 10 9 11 11 11 11 10
6 7 4 3 3 5 5 7 7 9 10 13 21 20 18 15 16 21 22 23 25 24 26 23 18 13 10 9 10 9 11 11 11 11 11 10 10 9 13 12 12 10 11 11
6 3 3 4 6 6 5 8 9 13 18 17 18 18 17 16 17 21 23 22 22 22 20 15 12 11 9 8 8 9 9 10 11 13 13 13 11 10 11 11 12 10 12 11
5 5 6 7 7 8 9 13 15 15 17 15 18 18 17 18 19 21 21 20 25 25 19 15 11 10 8 8 8 8 10 11 13 13 13 13 13 12 9 12 13 13 11 11
4 6 6 6 9 11 14 17 17 17 18 16 17 16 18 22 22 22 20 17 22 21 19 12 12 11 10 12 10 10 12 13 12 13 12 12 11 12 12 10 12 13 11 10
5 8 10 11 12 15 17 17 16 17 20 20 18 18 19 19 20 20 23 22 23 16 17 12 10 12 10 12 9 12 13 14 13 12 13 13 12 11 11 13 13 13 13 11
10 11 13 14 15 17 16 17 23 21 18 17 19 20 19 20 20 18 19 20 22 18 18 15 13 14 14 16 15 14 15 16 16 15 15 15 15 15 14 12 14 14 14 14
13 14 15 16 16 17 15 20 18 18 16 20 17 16 20 18 18 19 20 26 24 22 18 15 15 16 16 17 17 15 16 17 16 16 15 17 17 15 16 16 15 14 14 14
14 16 16 17 15 16 19 21 16 12 11 11 18 20 21 20 20 25 25 26 23 20 18 17 18 17 17 19 19 17 18 18 17 16 16 15 18 19 17 16 16 16 16 14
14 13 14 17 19 20 20 17 14 13 9 14 16 19 20 24 24 25 24 24 22 20 19 20 19 20 20 20 18 19 21 20 17 16 16 15 16 18 19 19 18 16 16 17
14 15 16 17 18 20 20 17 12 8 10 15 19 18 21 23 23 24 23 22 22 21 22 23 23 23 25 24 23 21 19 21 19 18 17 15 15 17 17 17 16 16 16 16

GFSNGP_925_spd_027.txt.gz
Wind_Speed
4 5 5 3 4 6 4 5 4 7 5 3 9 7 8 8 12 11 10 10 7 6 12 18 15 14 17 16 24 21 10 15 17 24 25 11 9 12 12 9 9 7 9 13
3 5 7 4 7 8 7 4 3 4 3 11 9 7 11 10 9 8 7 4 5 8 13 15 13 16 19 23 18 11 18 22 25 14 10 23 21 8 12 7 4 9 10 13
3 4 6 4 4 3 1 2 1 1 3 7 11 12 8 8 8 6 6 6 7 10 17 15 15 14 16 21 23 26 26 22 20 21 16 11 11 16 12 8 4 9 12 10
2 4 2 4 4 2 6 5 6 9 11 10 8 6 8 6 3 5 6 6 9 17 17 20 13 15 19 19 21 24 17 23 19 20 17 21 16 16 18 4 9 12 6 4
3 1 6 6 3 3 4 3 8 7 8 7 4 3 4 3 2 3 8 14 14 16 18 19 22 19 17 18 20 18 18 17 18 17 17 13 12 5 4 9 11 7 8 9
2 3 6 6 4 5 2 3 4 7 5 5 7 4 4 6 5 10 12 15 17 21 21 21 21 22 21 20 18 18 15 15 17 19 21 13 7 5 3 7 8 3 7 12
3 3 7 7 3 2 4 5 5 6 5 3 2 5 6 8 5 12 12 16 19 20 18 21 27 28 25 15 15 14 18 20 20 17 20 16 13 8 8 10 3 5 11 14
2 3 7 4 3 6 5 3 7 4 4 3 4 6 3 4 7 9 13 16 19 16 20 24 26 23 19 14 14 17 18 17 19 20 19 14 8 8 7 3 5 9 13 15
8 6 6 4 4 4 5 6 4 4 4 4 5 1 4 4 5 8 11 15 15 20 22 21 19 20 12 12 15 16 17 16 19 19 19 13 10 8 6 8 9 10 13 14
4 6 6 7 7 6 6 5 4 4 4 2 2 4 4 5 9 12 16 17 20 20 19 20 17 15 13 15 16 13 12 15 16 16 16 11 8 9 11 11 12 13 14 13
2 1 7 6 6 7 7 6 5 5 4 4 4 5 6 4 9 13 16 19 21 21 21 17 15 17 20 19 15 10 12 13 13 16 13 9 8 9 10 12 14 13 13 13
5 6 4 5 6 6 6 6 5 6 4 5 11 5 9 8 11 16 17 21 21 21 22 17 16 20 20 17 14 12 10 10 11 13 12 10 9 9 10 15 13 13 13 12
4 6 9 9 7 7 5 7 10 5 5 5 11 11 10 7 12 16 19 20 19 21 21 22 24 21 19 18 14 10 10 11 9 10 10 10 10 13 15 14 12 13 13 10
12 10 5 5 4 6 8 9 10 11 12 11 9 9 9 10 13 17 17 20 22 18 22 22 22 17 17 21 13 13 12 11 7 8 10 11 9 11 11 13 15 16 14 8
9 4 5 7 6 7 10 12 7 6 8 8 7 7 9 10 14 16 19 21 19 22 19 22 22 20 18 19 12 11 14 16 10 8 10 10 9 8 11 12 11 13 13 8
7 9 8 5 7 7 7 7 6 4 5 4 7 8 9 16 18 20 18 18 21 20 23 27 24 24 19 15 11 12 13 6 6 9 10 10 10 9 12 10 13 13 12 11
9 6 6 7 7 6 6 7 5 1 4 6 8 10 15 16 17 14 18 18 22 24 25 26 26 21 18 14 12 12 11 8 11 12 12 11 12 10 9 13 14 13 12 11
14 14 12 8 6 5 4 3 2 5 6 8 14 14 14 14 15 19 22 25 25 23 24 24 22 19 18 11 11 13 13 12 11 12 13 13 12 14 11 13 12 14 11 12
15 13 14 13 9 5 2 5 7 8 13 14 13 14 14 17 17 19 23 23 21 22 25 26 21 18 13 13 12 12 12 12 11 12 14 14 14 14 15 14 12 13 14 13
14 11 8 5 4 5 8 10 10 12 15 13 12 15 18 19 18 20 21 18 21 24 25 26 22 19 15 13 12 13 12 11 12 12 14 14 15 15 16 15 14 13 13 15
5 3 3 6 9 9 10 12 12 14 17 14 14 18 19 19 19 19 18 17 23 25 25 20 19 18 16 15 16 18 16 14 14 14 14 14 14 14 14 14 11 11 13 13
2 4 7 8 9 11 13 14 15 17 17 17 19 17 17 20 23 22 16 19 27 23 30 21 23 18 16 15 16 15 16 16 16 17 16 16 16 16 15 15 14 13 14 13
6 7 9 10 12 14 16 17 21 22 22 18 17 17 16 19 22 20 18 18 22 26 27 26 23 20 19 19 21 20 21 21 19 19 19 20 18 16 17 18 19 17 14 14
8 10 11 14 15 17 17 23 22 22 22 21 19 11 11 20 21 18 19 25 27 26 26 24 21 19 19 21 23 22 22 19 21 19 19 19 17 16 17 16 17 17 20 17
13 13 14 16 16 18 22 23 22 21 20 14 8 10 13 16 19 26 25 25 25 26 25 24 22 20 20 22 23 24 23 22 23 21 21 20 18 17 18 17 15 18 17 19
12 14 16 17 18 22 24 25 22 26 19 11 11 14 15 16 23 23 23 24 23 24 24 24 23 23 24 25 26 28 28 26 24 23 24 21 19 18 17 17 18 18 17 16
14 14 15 18 23 23 21 21 21 17 12 12 16 15 14 20 22 22 21 21 20 21 23 24 26 26 26 26 28 29 30 29 26 23 22 21 19 18 16 15 14 15 16 16

GFSNGP_925_spd_030.txt.gz
Wind_Speed
1 3 1 1 2 1 4 4 5 6 6 5 7 8 7 7 6 5 4 5 5 5 8 12 7 8 8 9 14 15 15 13 13 15 19 17 14 13 18 19 14 14 10 8
3 6 6 3 5 5 4 4 4 8 6 3 5 6 6 6 6 5 4 5 5 7 10 14 10 10 11 14 15 15 12 10 11 14 15 11 14 14 13 14 14 13 11 8
4 4 5 6 5 3 1 2 4 5 6 6 5 6 5 4 3 0 2 4 6 8 13 15 14 13 11 11 14 13 8 10 13 15 15 18 19 18 18 13 10 10 11 5
3 3 1 5 5 4 9 4 8 11 8 6 6 4 5 5 4 2 3 5 8 11 13 14 13 13 13 14 12 7 9 9 12 15 19 23 22 23 16 5 2 6 2 2
3 2 5 4 4 5 5 5 4 9 7 5 6 6 4 4 3 1 2 7 10 10 8 8 12 15 15 14 6 4 7 12 15 15 17 18 17 15 9 5 3 6 2 5
2 4 6 5 2 4 4 5 8 7 7 5 5 2 3 3 2 5 9 8 7 5 7 13 19 22 18 11 7 8 11 12 13 14 16 16 14 12 4 7 3 4 5 8
2 2 7 7 4 3 5 7 7 7 6 6 4 5 4 2 1 6 6 5 8 8 14 18 17 13 10 6 7 9 13 15 13 13 14 12 10 7 4 1 5 5 7 7
3 2 7 7 3 7 5 3 7 6 6 5 4 3 2 3 4 6 8 10 12 15 17 14 14 10 5 7 10 15 14 12 12 14 13 9 7 6 5 5 3 5 7 7
9 7 5 6 5 3 6 6 6 6 6 6 6 5 3 5 7 8 9 11 13 14 13 16 10 6 8 12 16 13 9 9 10 10 10 8 4 7 3 2 5 6 7 8
3 5 7 5 3 3 4 5 5 5 5 5 6 6 6 5 5 7 9 10 11 14 15 16 7 7 11 14 14 10 9 10 9 10 9 5 4 4 3 6 8 7 8 10
4 2 5 1 2 6 6 6 5 5 6 6 8 6 5 3 5 5 7 11 14 14 16 18 12 14 18 15 16 13 11 8 8 7 7 6 4 3 6 8 9 10 10 10
5 7 5 5 8 7 6 6 6 7 8 9 10 6 6 5 3 6 11 14 15 18 18 16 21 23 22 11 16 13 12 9 7 5 5 6 5 5 8 8 9 8 10 9
5 4 3 7 9 8 8 9 8 10 14 8 8 8 5 2 4 10 14 14 16 17 15 23 21 22 18 17 17 14 9 11 8 7 6 7 8 8 10 10 10 9 10 8
8 10 5 3 5 7 12 13 19 16 14 11 9 6 4 4 7 13 14 15 16 17 21 20 19 21 21 17 17 15 11 11 12 9 4 9 7 7 8 10 13 12 11 8
9 1 6 9 12 10 14 15 8 6 7 7 5 4 4 5 11 14 14 15 16 17 17 18 19 23 22 18 15 13 11 13 8 8 8 9 9 10 7 10 9 12 12 9
6 8 10 10 11 10 10 6 7 4 5 2 4 6 6 10 12 14 15 16 16 18 22 24 23 20 20 18 14 14 12 12 7 5 7 10 11 13 11 9 10 12 13 11
12 8 11 10 8 6 6 6 6 4 1 2 6 7 12 11 13 16 17 15 16 18 21 24 23 20 21 18 16 12 12 9 8 10 13 11 11 15 10 11 12 12 12 12
17 14 11 10 5 5 4 4 2 1 3 5 9 11 11 11 13 18 17 17 20 19 21 20 18 21 21 18 14 12 12 13 12 12 11 12 15 14 14 14 15 15 12 11
19 14 10 10 8 6 2 2 4 5 8 11 11 12 12 13 14 16 15 16 19 21 23 24 21 21 20 18 14 12 12 14 15 13 12 14 16 15 15 15 16 16 13 12
11 11 9 6 3 4 5 7 8 10 13 12 12 13 14 16 13 16 18 21 23 21 21 21 26 19 21 19 14 14 14 16 17 16 16 16 16 15 15 15 14 15 16 11
8 7 6 5 5 7 8 10 12 14 15 15 16 18 19 20 17 16 19 16 23 19 21 20 24 23 24 20 16 15 16 20 21 21 21 20 18 16 17 15 14 11 13 11
5 5 6 6 7 9 11 13 14 17 19 19 20 20 19 18 16 17 16 18 26 20 22 25 27 24 23 22 20 19 20 20 21 24 23 23 23 20 19 18 16 16 17 16
5 5 7 9 10 11 14 16 17 18 19 20 21 22 20 19 16 17 14 19 22 25 25 26 26 24 22 21 21 23 23 25 26 26 25 23 24 24 23 21 17 16 16 19
5 7 8 9 11 13 13 19 20 21 22 24 24 23 20 15 17 15 16 20 20 21 24 25 24 25 24 23 23 22 25 27 28 28 26 22 22 23 22 19 18 17 16 15
9 9 11 12 11 16 18 21 21 22 22 25 25 18 12 12 13 17 18 18 19 20 21 22 23 25 26 25 23 25 27 27 28 28 28 26 24 24 23 20 19 18 16 17
13 14 15 15 16 18 21 20 19 21 22 23 20 17 16 15 12 16 15 13 14 17 20 23 23 23 23 24 24 25 28 29 30 30 31 30 26 25 25 20 19 16 16 15
16 18 20 21 22 25 26 21 17 15 17 18 19 18 19 13 14 15 9 10 13 19 19 20 21 22 24 25 26 27 26 25 29 31 30 29 25 20 21 17 17 14 13 13

GFSNGP_925_spd_033.txt.gz
Wind_Speed
3 4 1 2 4 6 6 5 6 5 7 6 9 8 7 6 6 5 3 2 2 2 5 10 8 5 6 8 9 11 12 8 10 12 16 17 17 19 20 23 21 19 14 14
1 5 5 4 6 6 6 4 6 4 4 4 5 6 5 6 6 4 3 3 2 5 6 7 9 7 7 7 10 11 7 8 9 13 15 14 18 22 24 23 20 15 11 6
3 4 5 6 8 9 5 4 6 6 7 8 6 7 7 7 6 5 4 2 4 3 8 6 6 6 7 10 12 11 6 7 9 11 16 17 21 19 19 18 14 6 2 4
2 3 2 6 4 5 4 2 3 3 9 10 6 4 6 5 5 5 4 1 5 5 4 4 4 7 10 11 12 6 6 8 11 15 17 19 20 18 17 6 3 3 0 1
3 3 5 4 4 6 6 7 6 8 6 5 4 4 3 5 5 5 5 10 6 4 3 3 8 9 8 7 4 4 7 10 14 16 17 17 16 15 14 7 4 3 3 2
3 4 6 6 3 4 3 5 9 7 8 7 6 2 5 8 6 5 12 8 3 3 4 7 7 5 7 8 6 7 9 14 14 14 15 16 13 11 5 6 2 4 1 3
2 3 8 7 4 3 5 7 7 9 8 9 7 5 3 6 5 12 8 4 6 4 6 7 7 9 8 6 8 10 15 14 12 13 15 13 11 8 6 2 3 2 3 3
3 1 8 7 3 8 6 1 7 7 7 8 5 6 4 5 7 9 10 5 4 6 7 9 11 8 7 9 11 16 16 12 11 12 12 11 5 6 2 4 1 2 5 4
9 6 4 5 3 2 5 6 6 7 6 6 7 6 7 6 6 8 5 4 4 6 8 10 9 7 8 12 16 15 13 12 11 11 10 6 5 1 2 1 3 4 4 5
3 4 7 7 2 3 4 5 5 6 6 7 7 7 6 6 7 5 3 2 5 7 10 13 13 10 12 17 16 11 12 13 12 10 11 7 7 6 2 1 3 4 5 7
4 6 3 6 6 6 6 7 7 6 5 6 9 6 6 5 6 4 1 5 7 8 12 11 11 16 17 18 12 13 14 14 10 7 7 5 5 4 3 4 5 6 8 9
6 7 5 5 7 8 8 7 9 9 6 9 9 7 8 7 5 2 4 6 8 12 12 12 18 18 17 14 13 16 16 14 9 8 8 6 4 6 4 5 6 6 7 8
4 3 4 3 5 6 7 9 11 10 12 7 8 11 8 5 4 0 5 7 10 12 13 18 17 18 16 18 15 16 17 14 11 10 10 8 9 10 9 8 8 7 6 7
4 6 2 3 5 7 10 13 19 17 13 12 11 8 6 4 2 5 8 9 12 13 16 16 19 20 20 19 16 16 14 12 12 13 14 10 9 9 10 9 10 12 8 7
7 3 3 7 10 11 18 17 13 7 7 7 6 4 3 2 3 7 9 12 13 15 16 18 20 22 18 17 17 17 14 12 12 11 10 11 11 11 12 10 11 9 11 9
3 4 8 11 12 13 14 10 6 4 5 4 2 1 1 3 7 9 11 13 13 16 19 20 22 22 18 17 19 19 19 13 12 12 11 11 13 13 14 14 13 10 12 12
9 6 10 12 11 12 8 4 4 5 3 2 2 3 5 7 8 10 12 13 11 15 18 21 22 19 18 20 21 19 17 12 13 13 15 15 12 10 12 13 12 14 14 11
19 17 17 14 9 4 1 2 1 1 2 2 4 7 9 9 11 13 13 14 15 17 19 18 17 18 21 21 19 19 17 14 15 16 15 13 14 14 14 15 15 16 18 15
19 16 13 9 7 5 3 0 2 4 6 8 9 12 12 14 15 16 15 16 20 22 25 14 18 17 21 16 20 20 18 16 16 16 14 14 16 15 16 15 16 16 18 18
9 7 8 6 4 5 4 5 7 8 9 10 11 13 15 18 18 17 17 18 22 22 19 15 17 20 21 21 20 19 19 17 17 19 19 18 19 21 19 16 16 17 16 16
8 7 6 4 3 3 3 5 7 10 12 14 15 17 19 21 21 20 18 16 24 17 18 18 21 25 22 21 21 22 20 19 19 22 23 24 23 23 23 22 20 18 17 16
4 4 3 3 4 6 7 7 9 12 14 16 18 18 20 24 24 21 19 20 22 18 22 20 20 21 21 22 22 22 21 21 23 25 26 25 26 26 25 23 24 23 20 19
4 4 5 6 6 8 10 11 11 13 15 17 19 20 22 25 25 18 14 17 15 20 21 21 20 19 22 22 22 22 19 19 22 25 28 29 30 28 27 26 26 24 22 20
6 7 8 9 10 11 10 15 16 18 19 19 19 22 23 25 27 21 17 16 17 18 17 16 18 21 22 23 21 21 23 23 24 27 28 29 28 29 27 25 25 22 21 20
8 9 10 12 13 17 20 23 25 25 25 24 24 22 25 25 20 23 18 15 17 14 12 15 19 19 18 18 20 21 22 23 25 26 27 27 28 30 29 26 25 22 21 19
11 14 15 15 16 19 21 22 19 22 23 19 25 23 24 22 23 24 16 17 11 9 13 16 16 20 21 21 23 25 25 25 25 25 26 26 27 30 29 26 24 22 17 16
17 19 18 17 16 20 22 22 20 22 23 22 22 20 22 21 20 17 18 8 6 10 12 14 16 16 19 20 21 22 24 25 24 25 26 29 29 27 27 25 19 14 13 13

GFSNGP_925_spd_036.txt.gz
Wind_Speed
2 3 2 2 4 6 7 5 6 4 7 6 9 8 7 7 7 6 5 4 3 2 3 5 5 7 6 5 6 9 10 7 7 8 12 16 19 22 24 24 22 18 16 13
2 3 5 3 6 7 5 3 7 4 8 6 4 7 7 8 8 6 5 5 4 2 5 8 7 4 3 6 8 10 10 8 7 10 14 17 20 23 22 20 18 13 9 2
4 4 5 6 9 9 5 5 7 6 8 6 4 8 10 9 8 7 6 5 4 7 9 6 3 1 5 9 10 12 8 6 10 12 16 19 19 20 18 18 13 6 1 2
2 3 2 6 2 5 8 5 7 2 4 10 6 3 6 5 7 7 7 6 7 9 6 5 2 5 8 10 11 8 6 9 11 15 18 19 19 18 17 14 10 7 2 2
3 3 6 5 5 6 7 7 8 7 4 5 5 4 3 7 6 7 6 7 10 7 6 3 5 6 6 7 7 7 8 9 14 15 18 19 20 17 14 8 6 3 3 1
3 4 6 6 3 3 3 5 5 7 8 8 6 3 6 9 6 6 6 10 7 6 3 3 3 4 8 8 7 8 10 14 16 15 17 20 19 13 11 13 9 5 3 3
2 3 8 7 3 2 5 7 5 8 7 9 6 5 3 8 6 11 15 11 9 5 1 1 5 8 7 6 8 10 14 18 16 14 17 17 16 9 9 8 3 3 4 5
3 2 7 6 3 7 6 2 5 7 8 13 4 7 6 7 7 10 12 11 6 2 1 3 7 6 6 7 10 15 16 15 14 16 18 15 11 12 6 1 3 5 7 6
8 6 5 6 4 3 3 4 5 7 5 8 7 6 7 7 8 12 10 7 4 0 3 5 7 7 8 11 15 17 14 12 14 16 15 13 10 7 6 6 6 6 7 7
2 4 7 8 5 5 5 5 4 4 6 8 9 8 7 8 8 10 8 4 0 3 4 8 7 7 11 16 17 14 12 16 19 15 12 11 9 9 9 6 7 9 8 9
5 8 4 9 8 6 5 4 5 5 4 6 8 7 9 6 6 6 5 1 3 4 7 9 9 14 15 15 14 11 12 17 18 15 11 9 7 7 8 6 9 11 12 11
6 6 3 6 4 4 7 6 7 7 7 9 14 9 8 7 7 6 2 3 5 7 8 10 14 15 15 13 13 14 16 17 17 14 12 12 10 8 9 9 9 11 11 11
4 1 4 4 5 2 5 6 6 9 14 12 13 13 10 6 7 4 2 4 6 9 10 13 15 17 16 14 15 16 16 17 16 13 14 14 15 13 12 12 12 12 10 10
5 3 3 2 2 5 10 17 22 20 19 18 9 9 7 4 4 3 5 6 8 10 13 13 15 17 14 15 14 15 16 18 16 15 14 17 18 15 13 14 15 14 10 11
6 4 1 7 13 11 17 18 15 13 9 9 7 4 3 4 6 7 7 8 9 11 13 14 16 18 16 15 15 16 18 19 21 15 14 14 15 15 16 18 18 17 15 12
5 9 12 15 14 14 15 14 11 5 4 4 3 2 5 7 8 9 8 8 8 12 14 15 17 17 16 16 16 19 18 20 19 15 15 15 17 17 19 20 21 19 20 17
8 8 13 14 12 12 12 7 2 7 4 2 5 5 6 8 9 11 9 9 10 14 17 19 22 17 16 15 19 20 19 20 22 16 17 17 20 20 19 17 18 18 17 16
18 17 16 13 8 6 3 5 5 4 3 3 4 6 8 9 12 14 15 15 18 18 19 19 16 14 16 16 19 18 21 22 23 21 19 18 19 19 19 19 18 19 20 18
19 15 12 8 4 4 3 2 1 1 2 4 6 9 11 15 18 20 20 19 21 22 23 17 16 16 17 19 21 22 22 23 23 23 21 19 19 18 20 21 20 19 19 19
8 8 8 5 3 1 1 1 2 4 4 7 11 15 17 20 20 21 20 22 24 25 20 17 17 18 21 23 22 20 22 23 24 23 21 20 23 24 24 24 24 23 22 21
5 4 4 3 2 4 5 6 7 8 9 11 12 15 18 21 21 21 20 15 29 22 16 16 18 19 20 19 20 23 24 23 23 23 24 25 25 27 27 28 28 27 27 25
3 3 3 4 4 6 5 5 7 9 11 13 15 17 19 22 24 25 26 24 30 24 16 16 19 19 18 19 21 21 22 23 24 23 24 24 25 26 28 29 29 29 26 26
3 4 5 6 7 9 11 12 12 15 19 21 23 24 23 24 25 18 17 25 16 15 15 16 16 15 17 20 21 21 21 21 21 21 23 25 26 25 25 25 27 28 25 24
7 10 11 12 13 17 16 20 22 24 23 27 27 27 26 27 30 25 26 25 20 18 15 14 11 14 18 18 16 18 19 20 21 23 25 25 25 25 25 26 26 27 27 25
13 13 16 18 15 13 17 20 21 20 22 23 23 26 28 27 22 31 29 24 25 17 13 11 11 15 18 17 16 17 19 20 20 23 24 23 24 26 28 27 27 27 25 26
15 14 14 13 12 14 17 17 17 19 21 24 27 27 28 27 29 28 24 24 18 16 10 9 12 14 13 13 13 14 15 16 17 18 19 20 23 24 25 28 29 27 25 23
13 14 13 13 15 18 20 18 18 21 23 23 27 30 31 31 26 24 22 21 18 11 7 7 9 9 9 10 12 13 15 17 19 20 21 21 21 20 19 23 26 22 19 15

GFSNGP_925_spd_039.txt.gz
Wind_Speed
1 1 1 2 4 9 8 4 7 4 9 6 7 11 11 10 13 13 12 10 8 8 8 8 10 13 9 4 2 6 8 9 7 6 8 11 14 18 19 18 16 16 11 12
3 1 3 4 5 6 7 4 11 5 14 9 1 7 11 14 15 14 12 10 9 9 10 11 11 9 6 1 4 7 9 9 6 7 9 13 17 17 15 14 14 12 9 3
3 3 3 5 9 13 6 6 8 10 9 5 6 10 15 16 14 13 11 10 10 9 12 11 9 6 1 3 7 8 9 5 5 8 12 14 14 14 14 13 10 11 7 4
2 2 1 4 2 2 10 7 12 4 4 6 2 3 8 12 15 11 9 10 8 12 11 9 6 1 3 5 6 6 5 5 7 11 13 11 13 14 12 11 10 8 6 1
2 3 5 5 2 5 6 5 11 13 4 3 5 4 4 10 9 10 10 11 12 13 12 10 3 3 3 4 6 5 5 7 10 12 9 10 13 13 11 11 10 10 4 3
3 2 5 5 2 3 3 4 1 6 6 8 8 4 5 14 11 9 12 13 14 10 6 4 1 2 6 6 5 5 7 10 12 11 9 11 13 13 11 11 11 7 5 4
2 3 7 6 2 1 3 4 3 6 7 11 7 4 1 10 11 13 15 14 14 12 8 3 1 5 7 5 5 7 10 13 13 10 9 14 15 12 10 10 7 6 5 7
3 1 6 5 3 4 3 2 2 4 8 13 5 6 7 10 12 17 16 13 8 7 5 0 3 5 5 6 8 11 13 12 9 9 13 17 15 11 8 6 5 6 8 9
8 5 3 5 4 2 1 3 2 2 4 8 8 7 10 11 12 14 16 14 8 5 2 1 4 6 5 7 12 15 14 10 9 12 16 14 11 11 9 7 7 7 8 9
1 2 7 10 8 7 5 5 4 5 6 12 9 11 11 10 10 10 7 5 6 3 2 3 5 5 8 12 13 12 10 9 11 12 13 11 9 9 9 10 9 9 9 10
4 8 5 6 6 6 5 5 3 1 3 7 13 12 13 12 13 11 8 6 5 4 3 5 5 9 11 12 11 9 9 11 13 12 12 10 10 9 8 9 9 10 12 11
4 2 3 5 4 4 3 3 3 7 10 12 16 14 16 10 8 10 10 6 4 4 4 5 8 11 12 12 11 10 12 13 13 12 11 10 11 13 13 13 12 12 14 14
4 4 4 6 5 6 3 6 11 13 18 16 18 16 11 7 11 8 5 5 5 5 6 8 9 11 13 10 10 12 13 14 14 14 13 13 12 14 15 12 12 14 16 14
5 3 2 10 4 11 17 21 26 23 23 22 19 14 6 4 5 5 4 5 6 7 9 10 11 12 11 12 13 13 15 17 16 14 15 13 13 13 14 12 14 13 13 14
8 7 7 13 16 15 19 21 18 14 13 10 5 2 2 2 3 6 7 8 9 10 12 11 10 13 12 13 14 15 15 15 16 16 16 15 15 13 12 13 14 16 15 15
11 13 14 16 15 15 15 14 12 7 7 6 4 3 3 4 6 9 10 10 10 13 13 12 15 17 17 16 16 13 15 18 19 17 15 15 15 14 14 14 15 17 16 17
12 10 11 12 10 10 9 8 8 7 4 5 6 4 3 5 9 13 15 13 15 17 18 18 19 19 19 15 15 13 13 16 19 19 16 16 16 14 15 15 17 17 17 16
17 15 13 10 8 7 5 5 6 7 4 2 2 3 6 8 11 16 16 14 16 22 23 25 22 18 17 17 17 17 16 15 17 17 18 16 17 16 15 16 17 17 18 17
15 13 10 7 4 2 1 1 1 0 2 3 4 7 9 13 14 17 19 20 21 23 31 26 19 17 18 18 18 18 19 18 16 16 16 17 17 17 17 17 18 18 18 17
6 5 5 5 6 6 4 4 4 5 4 5 7 11 15 19 20 22 21 22 22 24 25 25 23 19 17 18 16 15 16 17 19 18 16 16 16 18 18 23 24 22 21 21
6 6 7 7 7 8 8 7 8 10 13 15 16 18 21 24 23 22 14 14 26 27 24 18 16 18 17 16 16 16 19 20 20 20 18 18 16 16 18 21 22 23 24 25
6 8 9 10 10 10 13 13 13 14 17 18 20 22 25 23 20 23 23 20 27 27 25 19 17 16 14 14 14 19 19 19 19 19 18 16 18 18 18 18 18 21 22 24
8 8 9 11 10 10 12 17 21 20 21 19 20 21 20 21 19 17 20 19 23 29 24 24 21 14 13 13 14 14 16 16 16 17 17 19 20 20 19 20 20 21 21 20
10 12 11 10 12 15 17 19 18 16 18 18 18 21 22 24 30 22 23 28 32 27 24 22 16 13 12 12 15 14 14 14 14 15 15 19 22 21 22 22 19 21 22 22
12 11 12 14 13 13 14 17 16 17 20 20 20 20 21 23 24 32 33 32 29 23 24 17 12 12 9 9 8 9 10 9 11 12 13 14 15 17 18 21 22 24 24 23
13 12 11 11 11 11 13 15 14 16 21 21 21 23 26 28 27 28 31 30 28 26 16 9 7 7 6 5 6 7 8 10 13 14 14 14 15 16 18 20 18 19 21 22
11 12 9 8 11 13 14 15 16 18 19 21 25 26 27 28 28 29 30 28 24 13 3 4 6 6 6 6 7 8 8 10 12 14 14 15 16 16 19 19 20 19 13 9

GFSNGP_925_spd_042.txt.gz
Wind_Speed
2 0 3 4 8 13 15 14 8 11 11 11 5 9 9 10 12 15 16 16 14 13 14 14 14 14 9 10 6 3 4 6 7 6 6 7 11 14 16 16 15 15 14 11
3 2 2 7 8 10 15 16 15 19 20 15 8 7 8 11 14 15 15 16 14 13 13 13 14 12 10 7 3 3 6 8 7 7 7 10 13 15 15 15 14 14 12 9
2 2 3 6 15 18 13 12 15 14 16 3 6 8 10 12 15 16 16 15 14 13 14 13 13 10 7 4 3 4 7 6 5 7 9 12 14 14 14 14 13 12 10 7
1 2 3 1 1 3 12 16 15 17 10 7 4 4 6 10 13 14 14 14 12 14 14 15 12 8 4 4 3 4 6 6 7 9 12 13 13 14 13 13 11 11 9 8
2 4 6 12 3 3 3 6 4 12 8 4 2 3 8 9 11 13 13 15 14 15 16 13 10 8 6 5 5 6 7 8 9 11 13 12 12 13 13 11 12 12 10 9
3 3 4 3 4 1 2 5 3 3 4 6 5 4 5 11 12 12 14 14 16 16 15 12 6 4 4 7 7 7 8 8 10 13 12 12 12 13 13 12 11 9 9 8
3 4 6 1 1 2 2 3 1 2 3 8 6 4 3 8 11 13 14 17 19 17 13 10 7 5 6 6 7 7 7 9 12 12 11 12 13 14 14 13 12 9 8 9
3 3 4 5 6 3 4 3 3 3 3 7 6 1 4 9 11 13 16 16 12 12 9 7 5 3 6 7 6 7 9 13 13 12 12 14 16 15 14 12 11 10 10 11
6 1 3 6 6 3 4 7 7 5 3 6 6 6 8 11 14 16 18 15 11 3 4 4 2 3 6 6 7 9 11 12 11 10 12 13 14 14 14 12 11 11 11 12
2 2 5 6 7 8 9 10 10 8 9 8 8 8 9 11 12 14 14 10 3 7 5 3 3 5 6 7 8 10 11 11 11 12 13 14 13 12 13 12 12 11 11 12
4 8 5 4 4 7 9 7 6 4 5 4 5 9 10 11 11 13 10 6 4 4 4 5 5 6 8 8 9 11 12 11 13 12 13 14 13 13 13 14 13 10 12 13
2 5 4 5 10 9 8 8 5 4 7 8 10 12 16 14 13 6 3 2 2 5 6 7 7 9 9 9 10 11 12 13 13 13 14 15 15 15 14 17 18 17 15 15
3 9 6 7 10 10 8 9 11 13 16 17 21 20 18 11 3 1 3 5 6 7 7 8 9 10 9 9 8 10 13 15 14 14 14 15 16 16 16 15 17 18 18 19
6 7 4 12 7 12 15 19 23 23 22 21 17 12 8 3 5 8 7 6 7 7 9 10 11 12 10 10 11 13 15 16 16 16 15 15 16 17 16 14 15 14 14 15
8 9 10 12 14 14 18 19 16 11 11 9 5 6 6 7 6 5 4 6 8 10 12 12 13 14 11 12 14 16 15 15 15 17 19 18 17 19 18 16 16 15 16 15
10 11 12 13 14 13 14 12 11 7 8 7 4 2 4 4 4 5 7 8 9 12 14 16 20 21 15 15 18 17 17 16 16 16 18 19 16 18 19 16 16 16 16 17
11 10 9 10 9 9 10 10 7 4 5 5 5 3 3 5 8 8 9 9 14 18 21 23 28 22 20 19 18 18 19 18 17 18 17 18 18 19 19 19 17 16 18 17
15 15 15 12 8 6 4 5 5 5 5 5 4 5 7 8 10 13 16 18 19 22 23 24 24 20 20 20 17 17 18 19 18 19 18 18 17 17 19 19 18 17 17 16
14 12 9 7 6 6 6 6 6 5 6 7 8 9 11 13 13 14 18 17 19 19 21 18 20 24 20 18 17 16 19 20 18 20 19 20 19 18 18 20 20 20 19 18
9 9 8 9 9 9 7 7 6 6 7 9 11 11 12 17 20 23 22 21 20 22 24 23 23 21 20 18 19 15 15 16 16 19 19 20 20 18 18 19 21 21 21 22
9 8 8 8 9 10 10 10 10 10 10 13 12 13 14 18 17 17 19 21 23 22 20 23 23 21 18 16 15 15 16 17 18 18 18 18 20 20 17 18 19 19 20 22
7 8 8 8 9 10 10 10 10 10 11 12 13 14 16 18 19 19 16 20 25 24 26 27 25 22 23 21 14 15 13 15 18 19 18 17 16 16 17 18 18 18 18 20
8 8 9 10 9 7 6 9 10 9 11 12 13 16 18 19 19 21 22 26 28 29 32 29 27 28 27 22 15 12 11 13 14 15 16 17 18 19 21 21 20 20 20 20
9 9 8 6 6 7 9 12 12 10 11 13 14 16 17 23 23 19 23 28 29 33 34 31 24 24 19 10 8 7 7 8 9 10 10 11 12 14 15 17 18 20 22 20
9 8 8 7 7 8 9 12 12 13 15 16 16 16 18 19 20 27 28 29 29 31 27 15 16 13 9 7 6 6 5 5 7 8 9 10 11 12 14 15 16 18 18 20
7 6 6 8 8 9 10 12 12 14 16 17 17 19 20 21 22 25 26 27 26 23 18 13 13 12 10 9 8 8 7 7 8 9 10 10 11 12 14 15 16 17 18 18
8 7 6 6 8 9 10 11 12 14 16 17 20 20 21 21 21 21 21 21 20 18 16 15 14 14 12 11 10 10 9 9 10 11 11 12 12 13 14 16 16 16 16 16

GFSNGP_925_spd_045.txt.gz
Wind_Speed
14 6 8 8 9 10 15 17 15 12 15 10 7 5 7 9 9 12 12 14 15 15 15 17 16 17 14 11 11 8 9 7 7 7 8 9 9 11 13 15 15 16 16 14
5 7 9 11 13 13 14 17 18 18 18 15 10 6 6 10 8 11 14 15 15 15 16 17 18 16 14 12 9 7 6 6 8 8 9 9 11 13 15 15 15 16 15 14
7 3 5 6 15 18 17 17 14 15 16 8 8 6 8 7 7 10 12 13 14 13 15 15 15 16 14 10 7 5 6 8 8 8 9 11 13 14 15 15 16 14 13 12
1 1 1 2 2 5 7 12 14 14 13 10 7 7 5 6 8 8 9 11 12 13 13 14 15 15 10 8 6 6 7 8 8 9 11 12 14 15 15 16 14 14 14 12
3 6 9 12 5 2 2 5 6 8 9 3 3 5 13 5 5 6 8 9 11 12 13 14 14 11 8 7 5 5 7 8 10 10 12 14 15 15 15 16 14 14 13 13
3 3 4 3 4 1 1 5 8 6 4 1 2 4 4 3 1 4 7 9 11 12 13 13 10 6 2 4 7 7 8 8 10 12 13 15 15 15 16 15 14 13 12 11
5 3 6 4 3 2 5 3 6 6 5 3 6 7 7 3 4 7 8 9 11 12 12 11 7 4 2 7 7 7 8 9 12 14 16 15 15 15 17 15 12 14 11 11
3 3 5 7 6 1 5 5 5 6 5 7 7 4 4 3 4 6 9 12 13 12 10 6 3 0 5 6 8 8 9 12 14 15 15 14 15 17 16 13 14 13 12 13
6 1 5 4 4 3 5 8 8 9 9 8 8 6 3 2 5 7 11 12 10 9 8 4 1 3 4 6 7 9 12 13 14 14 14 15 16 16 14 13 14 15 13 13
1 3 3 1 3 6 8 8 9 8 9 9 10 8 3 5 8 12 12 11 10 7 1 2 2 4 6 7 8 11 13 13 14 14 14 15 16 14 11 14 15 14 13 14
5 7 3 8 6 9 9 8 8 5 7 6 4 5 8 8 10 14 13 9 4 4 8 7 7 8 8 9 10 12 13 14 14 15 15 15 16 16 15 16 17 16 15 13
1 5 4 7 9 9 7 8 7 6 10 12 11 11 17 14 15 11 8 7 2 6 9 9 9 9 11 11 11 12 13 14 14 14 15 16 17 17 19 20 20 21 23 22
2 5 5 6 10 11 11 11 13 15 16 15 19 20 19 14 9 6 5 5 6 8 9 10 11 13 13 12 12 12 14 15 15 16 16 15 13 17 20 19 19 19 22 24
4 4 7 11 7 12 14 16 20 21 20 18 17 13 11 9 8 6 5 6 7 9 11 12 13 15 15 14 15 16 17 18 18 17 16 16 17 19 19 21 19 16 15 20
7 10 12 12 12 12 17 16 13 11 11 10 8 6 2 2 3 4 5 7 9 11 13 14 15 17 18 18 19 21 20 20 19 19 18 19 21 22 21 22 21 21 17 16
9 10 10 12 13 12 12 10 10 7 7 6 7 6 6 6 7 8 9 8 9 13 17 20 24 23 20 21 23 25 24 24 24 22 19 18 17 18 20 20 20 20 19 17
11 9 10 11 10 10 9 7 9 10 8 7 7 7 7 8 9 8 11 11 15 20 22 22 25 21 20 21 23 26 26 25 22 16 20 18 20 19 19 19 20 20 21 19
11 13 13 11 9 7 7 7 7 7 8 7 7 7 9 10 10 12 14 18 24 25 23 23 21 19 22 26 26 27 26 22 19 19 21 20 21 22 21 21 20 20 21 19
17 13 11 9 8 8 7 8 7 7 8 8 9 10 10 12 12 15 17 17 19 22 21 23 26 26 26 29 30 26 23 20 22 21 19 18 19 21 22 23 19 20 20 20
12 11 11 11 10 8 9 8 5 7 7 10 11 11 13 14 19 18 18 18 19 20 24 24 28 28 27 29 29 27 21 21 22 20 18 18 21 22 21 22 21 19 18 19
11 10 10 10 11 12 13 9 9 8 8 11 11 12 13 17 16 17 19 20 21 22 27 28 29 28 28 27 30 28 26 19 20 16 16 19 20 20 20 17 17 17 18 18
10 10 9 9 9 9 8 8 8 9 10 11 11 12 16 17 18 17 17 20 24 29 28 30 30 31 35 35 28 29 27 21 12 11 13 15 17 18 18 18 19 20 18 18
10 10 10 9 7 6 6 8 8 6 8 10 11 13 15 16 19 21 20 23 28 29 31 31 30 23 25 27 23 19 13 10 9 9 9 11 13 13 14 16 17 18 20 20
9 8 8 7 6 5 4 7 9 7 9 11 12 14 16 19 19 19 22 27 28 29 27 22 26 26 24 20 18 16 14 12 11 10 10 10 10 11 12 13 15 16 17 18
9 8 6 4 3 4 6 9 9 10 12 13 13 14 16 17 18 23 23 23 24 24 23 22 23 24 21 19 17 16 15 13 13 12 12 12 12 13 13 14 15 16 17 17
6 5 6 7 6 6 7 9 10 11 12 13 14 15 16 17 18 17 19 19 20 21 20 20 21 21 20 19 17 16 15 14 14 14 14 14 14 14 15 16 17 17 18 18
8 5 4 3 5 7 8 8 9 11 12 13 14 15 16 16 16 16 17 18 19 19 20 19 19 19 19 18 17 17 16 15 15 15 15 15 15 15 16 17 18 18 19 19

GFSNGP_925_spd_048.txt.gz
Wind_Speed
14 14 12 8 13 7 10 10 10 11 15 12 9 5 3 4 6 6 7 10 9 8 6 12 13 14 15 16 11 7 9 8 3 3 3 5 6 6 7 10 12 13 15 14
8 10 13 10 14 15 14 15 15 14 14 11 8 8 9 7 7 5 5 5 5 5 8 12 14 15 16 11 10 10 7 2 7 8 6 3 4 8 11 10 11 14 16 11
2 6 7 5 10 15 16 15 11 12 10 8 9 5 7 3 5 2 6 5 5 6 9 12 15 17 15 12 9 6 3 6 8 4 4 6 8 12 13 12 13 14 9 13
1 1 1 9 3 5 5 8 9 10 10 10 12 10 7 4 6 6 0 5 1 4 7 13 16 14 12 11 10 4 2 6 4 4 5 9 11 13 14 13 12 11 11 14
2 4 7 12 2 2 1 3 11 9 9 9 10 7 11 8 9 8 7 4 4 9 14 14 13 12 12 7 3 2 1 3 4 6 10 10 12 14 14 14 13 13 12 12
3 3 5 1 6 2 2 2 8 8 7 6 4 3 6 9 6 5 3 4 10 17 17 16 16 11 9 11 9 9 5 4 6 9 11 13 15 13 13 14 17 9 9 12
3 2 5 3 6 1 3 3 6 7 7 7 6 4 6 8 5 7 10 12 20 18 15 20 18 14 10 7 3 4 7 8 9 12 13 15 16 12 13 16 12 9 13 14
2 2 6 7 6 2 4 5 7 6 7 5 4 6 5 7 5 7 16 17 16 19 20 16 13 11 11 12 13 12 11 11 11 13 14 14 15 15 16 15 10 12 14 15
7 4 5 5 8 6 6 6 7 7 7 7 7 7 1 4 9 13 16 23 21 19 17 15 10 5 1 2 7 9 8 11 13 14 14 14 15 15 15 12 10 14 13 15
2 4 8 7 12 10 9 7 7 7 8 8 7 6 8 8 11 16 19 18 15 12 9 6 2 3 9 9 7 10 11 13 14 15 15 15 16 17 15 12 12 14 14 15
5 3 11 12 11 7 6 8 7 10 10 9 5 11 14 15 16 19 16 12 9 5 2 7 9 10 8 9 10 12 14 14 15 16 16 17 16 18 17 13 15 17 18 18
1 6 6 9 8 8 9 10 11 13 15 18 20 17 20 14 15 13 11 6 3 6 8 7 9 10 11 12 12 12 14 15 16 17 17 19 19 19 20 22 23 23 25 25
4 6 11 12 13 14 13 13 14 13 14 13 16 17 16 12 10 8 4 4 5 8 9 10 11 13 13 14 15 17 18 18 20 20 20 19 17 17 20 21 18 21 22 25
5 5 7 7 8 12 14 16 17 17 16 16 15 13 11 9 6 3 2 5 7 10 11 12 13 14 14 16 17 18 20 21 23 24 23 22 20 20 19 20 22 22 21 22
10 12 14 14 15 12 14 14 13 11 10 10 9 7 7 7 8 7 8 8 8 11 13 17 18 24 24 22 21 23 25 25 27 28 27 26 24 23 21 20 21 23 23 21
10 10 11 13 13 12 12 11 9 7 9 13 13 11 10 10 9 8 9 12 13 13 19 24 26 27 21 21 21 23 24 26 29 29 26 19 18 18 21 19 20 19 19 21
12 11 11 12 11 10 9 10 12 11 12 12 11 9 9 11 11 13 13 15 18 23 24 22 23 18 23 21 25 27 27 28 28 29 24 21 21 21 21 20 19 19 21 22
11 12 12 11 8 9 10 12 12 13 11 9 9 10 12 12 11 13 16 18 24 22 20 17 25 28 28 29 28 28 27 27 28 27 24 20 22 22 17 18 20 21 24 21
17 13 13 12 12 13 12 11 13 13 12 12 12 11 10 8 11 13 16 21 19 18 19 22 27 29 28 28 29 26 23 25 26 31 24 22 21 19 17 18 20 21 22 20
15 16 16 15 15 14 13 10 13 14 12 13 11 12 12 16 18 18 20 17 17 17 29 29 30 29 29 28 32 31 29 27 26 27 29 18 19 12 16 19 21 19 18 15
14 15 15 15 15 17 15 13 13 11 9 13 14 15 15 17 15 17 14 14 17 27 27 29 28 26 25 31 34 29 28 27 27 29 26 13 7 10 13 15 17 17 16 17
13 12 14 15 13 13 12 11 10 11 11 14 13 14 15 13 15 14 15 17 23 26 27 26 23 33 37 31 26 26 26 25 24 21 18 16 14 14 14 14 15 17 18 19
14 13 12 13 11 11 11 10 7 11 11 11 9 11 12 13 14 16 15 20 21 28 24 22 29 35 28 26 28 27 27 24 24 24 22 20 16 15 15 14 15 17 18 20
14 13 12 11 10 8 7 9 8 7 9 8 10 12 13 14 13 14 17 18 21 23 22 22 25 28 27 25 26 25 25 24 24 23 22 22 21 20 19 19 19 19 20 20
13 11 9 7 7 8 7 7 6 7 8 8 9 11 12 12 13 16 16 16 19 19 20 21 22 24 23 24 24 23 23 22 23 23 23 22 21 21 20 20 20 20 21 21
9 10 9 10 9 7 6 6 7 7 9 9 10 12 12 11 12 15 15 17 17 19 18 20 21 22 20 21 21 22 22 22 23 22 22 21 21 20 21 21 22 22 21 22
10 7 7 8 8 6 6 6 7 8 9 8 10 13 12 11 13 13 16 18 18 18 18 19 20 21 21 21 20 20 21 20 22 21 21 22 21 22 22 23 23 22 23 22

GFSNGP_925_spd_054.txt.gz
Wind_Speed
5 3 3 1 0 1 4 4 5 7 6 9 4 8 8 5 2 4 6 6 6 6 7 18 19 22 26 30 33 30 27 25 21 18 20 19 12 3 7 7 7 17 14 11
3 3 3 3 3 4 5 3 4 4 5 6 4 6 9 5 8 8 5 3 7 8 13 18 22 23 25 28 28 28 28 26 25 21 18 9 2 2 3 7 19 13 10 14
4 3 3 5 6 6 5 3 5 5 4 2 8 9 6 7 8 7 6 6 7 8 12 17 19 24 24 26 26 27 26 23 18 14 13 10 6 4 13 18 10 12 16 15
3 3 2 7 5 3 9 4 6 9 5 9 11 6 7 6 6 7 7 7 8 12 20 22 25 27 30 30 29 24 23 22 20 16 11 1 13 13 10 10 16 17 15 15
4 3 4 5 4 6 5 1 4 7 7 7 8 8 8 7 8 8 9 12 17 20 25 28 28 28 30 27 25 25 22 17 12 11 9 8 10 13 14 16 17 16 16 16
3 4 7 7 3 5 5 1 3 6 5 6 3 3 1 4 11 12 19 19 23 25 30 33 28 33 33 27 24 20 12 7 12 9 5 8 11 14 14 15 15 15 17 19
2 3 7 7 6 3 6 6 5 6 5 3 4 4 7 10 14 19 20 22 25 28 28 28 28 28 26 20 16 7 4 4 2 4 7 8 11 14 14 17 18 19 21 20
3 3 6 4 4 7 5 4 7 5 4 6 9 12 11 12 13 16 20 22 24 26 24 23 19 18 14 11 4 4 3 3 6 9 11 12 14 17 18 18 19 20 21 22
8 5 3 2 5 5 6 8 4 7 4 8 14 12 11 11 12 15 18 19 20 20 20 16 15 12 9 8 5 6 8 10 11 13 15 14 16 19 20 21 24 25 25 27
6 2 2 5 5 6 6 10 6 4 5 11 15 13 14 12 10 13 14 14 16 18 15 12 9 9 8 7 8 9 11 13 15 16 18 18 20 22 24 25 26 26 28 26
4 3 5 6 5 10 11 11 13 12 12 14 17 13 12 11 11 13 14 16 17 15 12 10 9 9 10 11 11 12 14 16 19 21 23 25 27 27 27 29 28 29 27 24
5 12 5 4 5 8 12 10 10 15 13 13 16 13 15 10 13 14 14 14 15 14 14 14 14 14 15 16 15 16 17 20 22 24 25 27 31 36 34 34 35 32 32 33
6 8 14 13 10 9 14 12 12 13 15 14 15 18 16 14 12 15 14 18 19 18 16 15 16 17 18 19 20 20 21 23 24 25 24 24 24 23 26 33 29 31 34 36
19 18 11 1 8 11 15 17 21 19 18 18 17 18 16 14 20 21 18 16 16 16 16 15 15 17 20 21 21 22 25 26 26 27 27 27 25 24 24 25 27 28 27 30
7 9 13 16 15 13 18 18 14 11 11 14 18 17 19 18 17 16 16 15 15 16 16 15 16 19 22 22 22 22 22 22 25 26 25 27 27 26 25 26 27 28 27 25
14 18 15 16 15 12 12 10 13 10 11 14 16 17 18 20 18 17 16 16 17 17 16 17 19 21 22 20 20 19 21 23 26 24 26 26 27 26 27 27 27 28 24 21
18 10 14 14 13 11 10 8 10 12 14 15 14 17 18 18 18 16 15 13 14 16 15 19 19 19 19 20 25 27 27 26 26 25 25 25 26 26 29 29 28 31 24 22
11 13 14 14 13 13 12 15 17 16 14 14 18 18 18 17 12 12 11 13 11 13 18 17 15 18 21 23 22 21 22 23 23 23 25 25 24 23 27 30 28 24 21 17
18 14 18 19 20 19 18 17 16 17 19 19 19 18 16 13 11 11 12 13 14 12 14 11 16 20 20 19 20 19 21 21 20 22 22 25 25 26 25 24 24 22 24 23
17 22 24 21 21 23 20 18 21 20 18 17 18 17 15 13 11 11 12 14 12 11 10 10 16 17 17 18 17 18 19 18 21 20 22 22 21 23 24 25 25 24 24 23
15 20 21 21 19 19 21 23 22 18 15 15 17 15 15 13 10 9 9 8 8 12 8 8 14 17 20 20 17 20 19 16 22 21 22 21 21 23 20 22 22 22 23 22
17 18 18 20 19 18 19 19 20 20 17 16 14 13 12 11 11 12 10 7 6 8 8 10 12 14 16 18 18 19 19 17 22 21 22 20 21 22 20 21 21 21 22 22
17 19 19 18 18 18 19 18 17 17 16 14 12 10 10 9 7 6 4 4 5 7 7 9 11 13 14 16 16 16 16 17 21 19 19 20 22 20 20 22 21 21 22 22
18 18 18 19 22 18 14 13 14 15 15 13 10 8 5 6 5 4 3 3 5 6 7 9 11 13 14 15 15 15 15 16 20 18 15 20 23 20 23 22 21 22 22 22
18 18 20 16 13 10 15 16 17 14 12 9 6 3 4 3 2 4 2 5 6 7 9 10 11 12 15 12 13 13 15 16 20 17 13 21 24 23 23 21 21 21 22 23
16 14 15 16 14 14 14 12 12 9 9 5 5 4 5 5 3 1 4 7 9 8 9 10 11 13 15 12 12 12 14 17 19 16 15 21 25 25 22 21 21 22 24 24
18 18 16 15 12 11 11 9 7 5 4 3 3 3 5 2 0 3 6 10 10 8 8 9 11 12 13 13 13 10 13 16 18 18 19 23 25 24 21 21 20 23 25 24

GFSNGP_925_spd_057.txt.gz
Wind_Speed
4 3 4 3 4 6 6 5 6 6 7 8 6 8 8 7 3 4 7 8 8 7 6 11 18 20 21 23 26 29 27 28 25 21 17 17 14 13 5 7 9 7 13 10
3 2 2 4 6 4 4 3 6 5 6 4 2 4 7 6 7 5 4 3 7 7 8 13 17 20 21 23 23 25 22 21 19 17 20 20 9 4 6 3 13 15 11 11
5 2 2 6 8 8 6 5 5 6 8 3 4 7 5 5 6 6 7 7 6 6 8 14 19 24 24 25 25 24 25 25 25 20 13 12 9 4 7 10 14 12 14 15
3 3 1 7 3 6 5 1 5 3 5 5 6 4 6 6 5 7 7 7 8 10 16 19 22 23 26 27 27 27 25 23 21 16 11 2 7 10 10 13 13 15 17 16
5 4 4 5 4 7 6 3 2 6 7 7 5 4 7 9 9 8 7 9 13 18 21 23 25 27 30 28 27 28 26 18 10 7 9 9 7 10 12 13 14 15 16 16
3 5 7 8 4 4 4 3 6 6 8 9 2 3 4 5 6 9 14 15 17 22 25 28 25 30 32 27 27 22 13 6 7 13 11 6 8 10 12 13 16 16 17 19
2 2 7 7 5 5 6 7 8 8 6 6 4 2 6 9 9 12 15 18 23 25 26 27 29 30 28 22 16 7 6 9 6 2 4 7 10 12 14 16 19 20 21 22
3 3 6 6 4 8 6 3 6 6 5 6 10 10 10 10 8 12 15 19 21 23 23 21 21 21 17 12 5 3 3 1 3 6 7 9 13 14 15 18 21 23 25 28
8 6 2 2 4 1 4 8 5 7 6 12 13 8 11 10 10 12 14 17 19 21 22 19 16 13 13 8 4 3 4 6 8 10 12 14 16 19 20 22 24 28 30 30
4 3 0 2 2 3 4 6 6 5 11 10 13 13 12 10 8 10 14 15 17 18 17 16 12 13 12 8 5 5 8 11 13 16 19 20 22 24 27 30 31 31 27 26
2 1 4 4 3 5 9 9 11 9 6 14 17 13 13 10 9 13 14 16 17 17 16 17 16 16 15 13 11 12 13 16 18 19 21 23 24 24 24 27 25 28 28 28
6 12 5 5 7 6 9 9 9 16 12 10 15 15 16 9 15 15 14 16 19 19 18 14 15 16 16 16 16 17 18 21 22 24 25 26 28 31 25 26 29 29 32 34
6 12 8 13 8 5 9 9 10 12 14 15 16 20 19 16 13 18 19 19 18 16 15 14 15 17 17 16 17 18 19 20 22 22 22 22 23 23 27 33 28 28 28 29
16 17 9 3 6 9 12 16 19 19 18 19 19 20 21 19 19 17 16 16 16 16 16 15 15 18 17 17 18 18 18 19 21 22 23 22 23 24 24 25 27 33 34 32
7 7 11 16 14 13 17 18 15 13 12 14 19 20 21 18 16 16 15 15 16 17 16 15 15 17 16 18 19 18 20 20 21 21 21 22 23 23 23 23 26 29 34 38
13 16 16 17 15 14 14 13 16 11 10 16 18 18 19 22 19 16 15 11 14 15 14 15 15 14 15 18 17 17 18 17 19 19 20 21 22 22 22 23 23 25 28 34
17 10 12 13 14 12 12 10 11 11 15 17 17 20 21 19 17 15 15 16 16 14 12 12 12 13 13 14 15 16 16 18 17 17 19 19 21 20 21 22 21 22 24 28
10 12 11 16 15 14 12 15 18 17 15 17 21 21 18 15 14 15 15 13 12 12 11 10 11 12 12 14 14 14 16 16 16 18 18 20 20 19 21 21 22 22 25 26
17 16 15 16 18 18 17 17 17 19 23 23 22 18 17 16 16 15 12 11 11 9 6 8 10 11 13 13 13 14 14 14 18 18 19 20 19 22 21 20 22 22 24 24
16 20 22 21 20 23 19 18 21 19 18 21 22 20 17 14 15 13 9 11 8 5 2 6 9 11 13 14 14 15 13 13 17 16 18 19 18 22 19 20 23 22 24 22
14 19 20 21 19 19 20 22 23 18 17 18 19 18 16 13 13 9 8 6 4 4 2 7 9 10 12 12 13 13 13 13 16 16 17 17 20 22 19 23 24 21 24 24
16 17 18 20 19 17 17 19 22 22 20 18 17 16 15 13 11 9 6 4 2 3 4 6 7 8 10 11 11 11 10 11 15 15 13 16 20 22 20 24 24 22 23 24
17 17 18 18 18 17 19 20 20 20 19 16 14 12 10 10 7 7 6 1 1 2 3 5 7 7 9 10 9 9 10 11 15 15 12 14 18 21 21 23 23 22 24 23
16 16 17 18 22 19 16 14 15 15 15 12 10 9 9 9 5 4 3 2 2 4 5 6 6 6 8 10 9 9 10 11 14 16 13 15 20 23 22 22 22 23 22 23
16 17 18 17 13 12 14 15 17 14 11 8 6 4 6 5 2 6 3 2 3 5 7 6 6 8 10 11 10 10 10 11 14 16 15 18 22 24 23 21 21 22 23 25
16 14 15 14 12 13 13 14 11 11 10 7 5 3 6 4 4 4 2 3 6 7 7 7 7 8 10 11 11 12 10 11 15 16 16 19 23 25 23 22 22 22 24 26
19 18 17 17 16 14 11 9 9 7 5 3 2 2 6 7 4 3 3 6 7 8 8 7 7 9 10 11 12 11 10 13 15 16 17 21 25 25 23 22 22 23 24 25

GFSNGP_925_spd_060.txt.gz
Wind_Speed
5 4 6 6 5 8 7 6 7 7 8 9 6 6 7 6 7 5 7 7 7 4 6 9 14 14 14 16 18 20 23 24 23 23 18 19 15 12 12 7 9 11 11 14
4 1 0 3 7 8 5 3 5 5 6 7 1 1 5 6 4 6 6 5 3 2 6 8 11 14 18 19 20 22 23 23 22 16 15 15 14 15 11 9 5 9 11 15
4 2 4 5 8 9 7 6 8 8 11 6 3 3 3 5 6 7 7 7 7 6 7 12 13 16 19 22 23 23 21 19 18 19 21 14 12 9 2 10 16 13 17 16
4 2 1 7 1 4 8 5 5 4 2 4 6 4 5 5 4 6 6 7 7 8 14 16 18 20 22 23 24 25 25 25 22 21 16 8 5 9 13 10 13 14 17 17
5 4 4 4 4 7 8 9 7 6 7 7 7 5 5 6 7 6 5 6 11 17 20 21 23 26 28 27 27 29 27 22 16 10 7 9 12 16 9 12 14 14 15 17
3 5 8 8 4 5 4 6 7 8 10 10 6 4 3 4 4 6 10 13 16 21 22 25 24 28 30 26 27 23 15 12 8 7 10 12 6 8 10 12 15 17 19 20
2 3 7 7 3 5 5 8 7 11 12 8 5 2 7 8 7 11 14 17 21 24 24 25 26 30 26 23 18 11 7 6 5 1 2 5 8 10 13 15 17 19 22 23
3 2 6 8 4 9 7 0 6 7 7 6 9 9 9 9 9 11 14 18 22 24 25 25 25 26 20 17 11 10 8 6 5 5 7 9 11 14 16 19 22 25 29 33
9 7 3 6 4 2 4 5 7 8 6 10 12 6 8 10 11 12 17 19 23 25 26 23 20 19 19 12 7 8 8 9 8 8 10 12 14 16 19 20 23 26 25 25
2 4 5 4 2 2 2 4 5 5 12 11 10 12 12 11 10 12 17 19 23 24 22 21 21 20 17 14 11 10 11 11 12 13 16 17 18 20 21 22 24 22 21 22
3 4 6 6 4 4 5 6 10 9 7 12 15 12 12 11 10 15 17 20 23 22 21 20 19 19 16 14 12 12 12 13 15 16 18 21 22 20 20 20 19 24 24 26
9 9 6 5 9 8 8 6 7 15 10 8 11 15 13 10 15 17 18 19 21 20 23 18 17 17 15 14 13 14 14 16 17 19 21 21 22 22 18 17 19 20 22 25
2 7 4 8 7 4 9 7 8 9 12 15 15 20 20 15 15 21 20 20 19 19 19 16 15 16 14 13 14 15 15 16 18 20 20 19 20 20 24 25 22 20 23 24
11 11 6 4 6 8 13 14 19 19 18 18 20 22 23 20 21 19 17 18 20 19 17 14 14 14 13 13 14 14 14 14 16 17 18 17 16 17 19 21 26 30 26 28
7 6 6 14 14 13 15 17 15 13 13 15 21 22 22 20 18 17 19 20 19 17 14 12 12 11 11 12 12 13 13 13 15 14 14 14 16 19 19 19 20 21 28 31
9 11 11 16 13 12 13 12 17 14 13 16 18 19 20 22 21 20 18 14 13 13 12 12 11 9 9 11 11 11 11 12 12 13 15 16 18 17 16 18 18 20 20 26
15 9 12 12 12 11 10 10 13 13 16 18 21 23 23 22 20 17 15 16 16 14 11 10 9 8 9 10 9 10 11 10 12 14 15 16 17 14 17 15 17 18 20 25
4 4 7 18 16 14 12 11 15 15 17 23 24 24 20 16 16 16 15 14 14 12 9 9 8 7 8 10 8 10 10 10 12 12 14 15 15 16 18 14 20 20 22 26
10 14 14 15 18 15 14 14 16 18 21 25 24 18 18 19 17 16 15 12 10 8 6 6 6 7 8 10 10 10 10 11 12 11 13 14 15 17 18 16 21 23 23 25
15 19 21 21 22 21 17 18 21 18 19 25 25 21 18 18 18 17 11 10 7 6 3 4 5 6 8 9 10 11 11 11 12 12 13 13 15 18 18 17 22 24 24 25
13 17 18 19 19 19 20 21 22 18 18 22 21 19 18 18 15 13 10 7 4 4 2 3 5 6 8 9 10 11 10 10 12 13 12 13 16 19 20 20 22 23 24 25
14 14 17 20 21 19 18 19 21 23 21 19 19 19 20 15 12 9 6 5 4 2 0 3 5 7 8 10 10 10 10 10 12 14 13 12 15 20 22 23 23 24 24 25
16 18 19 19 18 18 18 19 19 20 20 18 17 15 12 12 9 8 6 3 1 0 3 5 7 8 9 10 11 11 10 10 11 13 13 13 16 20 22 23 23 23 24 25
19 19 19 19 22 20 17 14 15 16 16 13 11 9 10 9 5 4 4 3 1 2 5 8 8 8 9 10 11 11 11 11 11 13 14 14 17 21 23 24 24 24 24 25
19 19 19 17 15 13 15 14 17 14 12 10 7 4 4 4 2 4 3 1 3 5 8 9 9 9 9 10 11 12 12 12 12 14 16 16 19 23 25 24 23 24 24 25
19 17 18 19 15 14 13 12 12 9 8 7 4 2 2 2 2 3 1 3 5 7 9 9 9 9 10 11 12 13 13 12 13 16 18 18 20 24 26 25 24 24 24 26
20 19 18 19 17 15 14 11 9 7 5 3 2 1 3 5 4 2 3 5 7 8 9 10 10 11 11 12 14 15 14 15 16 18 19 19 22 24 25 24 24 23 23 24

GFSNGP_925_spd_063.txt.gz
Wind_Speed
5 5 5 6 5 12 11 10 8 11 11 10 7 5 5 6 6 5 5 3 2 4 5 8 8 7 7 8 8 11 15 15 15 16 20 26 21 20 15 15 11 6 8 12
4 3 6 5 6 8 9 5 9 8 8 10 4 2 2 3 1 4 6 7 7 6 7 8 8 10 13 13 13 13 15 16 20 24 20 17 18 17 13 7 4 7 11 14
5 1 5 4 7 9 5 6 6 9 10 3 5 4 2 3 5 6 6 7 9 9 10 10 11 12 14 16 17 17 18 19 20 20 21 21 15 13 11 5 8 14 13 13
3 1 5 4 2 4 10 7 9 6 5 5 3 5 4 2 5 6 6 7 9 11 15 15 16 18 20 19 20 22 23 25 25 26 24 17 10 5 4 12 12 10 12 13
4 5 3 3 5 7 7 13 8 12 8 5 10 7 2 3 4 6 6 8 11 14 16 18 19 21 23 23 26 28 26 27 22 16 11 6 3 8 8 7 9 9 11 14
3 5 9 8 5 6 4 10 8 11 10 13 12 7 5 7 6 8 10 12 14 17 19 21 20 23 26 26 27 23 23 18 11 6 4 2 1 1 4 6 9 11 14 15
3 4 5 6 4 6 6 9 5 11 11 16 9 1 11 12 10 11 13 15 16 18 21 21 22 26 26 23 19 15 12 10 9 9 7 5 3 4 6 8 12 15 18 20
3 2 8 8 5 9 7 3 4 9 11 12 9 12 13 13 13 13 16 18 19 23 22 20 21 24 22 20 14 16 14 13 11 8 7 6 6 7 8 10 12 14 18 18
8 6 2 10 2 3 3 4 5 11 10 15 16 10 14 14 14 14 20 22 22 25 24 20 18 18 19 12 13 14 13 12 10 8 8 8 8 9 10 11 12 14 16 19
2 4 6 5 3 3 3 4 4 7 17 17 15 17 15 14 14 15 21 22 23 24 23 20 18 19 17 15 13 12 11 10 8 8 8 9 8 8 9 11 12 14 16 19
3 5 5 8 8 3 3 3 7 9 11 16 20 17 18 16 16 20 21 21 21 22 21 19 17 17 15 13 10 11 9 8 8 8 9 8 8 9 9 8 11 13 15 18
6 8 6 5 5 9 10 10 12 15 13 13 17 19 19 16 22 24 23 22 21 20 21 17 16 15 13 12 10 9 8 7 8 7 8 8 9 9 8 8 10 10 14 15
3 2 3 3 5 6 7 10 9 12 15 18 16 21 21 18 21 24 22 21 21 20 19 17 16 15 11 10 10 10 9 7 6 8 8 9 10 10 11 10 11 11 12 15
4 5 2 3 3 8 12 12 17 18 19 20 23 24 24 24 24 23 21 21 21 20 18 16 15 12 9 9 9 9 8 10 7 8 8 8 9 10 10 12 14 14 14 15
3 2 4 12 12 13 13 14 16 14 15 16 22 24 25 23 23 22 21 20 19 18 15 13 12 10 8 8 8 8 7 7 7 6 7 7 8 9 10 12 13 15 17 17
7 6 10 13 14 12 14 12 15 14 14 15 20 23 25 27 26 23 20 16 17 15 13 13 11 8 8 7 7 6 6 7 6 6 7 8 8 9 11 12 13 16 17 20
8 5 5 11 13 14 14 12 13 13 14 18 21 22 24 24 24 21 18 17 20 17 13 11 10 7 7 7 6 5 5 5 6 5 6 7 8 8 10 11 12 14 15 17
3 8 11 9 9 10 13 15 19 22 16 22 24 23 18 16 18 19 18 18 17 14 10 9 8 7 7 7 6 5 5 5 5 5 6 7 8 9 10 10 11 14 16 17
13 13 14 15 15 13 13 14 20 26 25 24 22 16 17 18 18 18 16 15 13 11 8 7 6 6 6 7 6 6 6 6 5 5 6 7 8 9 10 10 12 14 16 17
14 18 21 20 20 19 16 18 23 23 20 24 23 19 17 16 19 19 14 10 7 8 8 6 5 5 4 5 6 5 6 6 5 6 6 7 8 10 11 12 13 14 15 15
13 15 16 19 19 21 20 20 21 19 16 19 20 17 16 17 16 15 11 9 7 7 6 4 3 3 3 4 4 6 6 6 6 7 8 7 8 10 12 13 13 14 15 15
13 13 17 20 20 19 17 17 20 21 19 18 18 20 20 14 12 8 6 6 7 6 3 2 2 3 4 5 5 7 6 6 7 8 8 8 8 10 12 14 14 15 15 16
17 19 20 19 19 19 18 17 18 19 18 17 17 14 10 9 7 6 5 5 5 4 2 1 3 5 5 6 8 8 9 9 9 10 11 11 10 11 13 15 18 16 16 17
21 21 21 21 21 21 18 15 16 17 18 16 13 11 11 8 6 5 6 5 2 1 1 4 5 6 7 7 9 10 11 11 12 12 12 13 13 15 16 19 20 19 19 19
23 22 21 19 18 16 17 16 16 14 13 11 9 7 5 3 3 4 4 3 1 2 4 6 7 8 8 9 10 11 12 14 14 13 14 16 16 17 18 20 22 21 22 21
21 19 20 18 15 13 12 11 12 9 8 8 7 6 4 3 4 4 2 0 2 5 6 8 9 9 10 10 12 13 14 14 13 14 16 18 18 18 20 23 23 23 23 22
22 19 19 19 16 14 12 10 9 8 7 5 4 3 2 1 2 1 1 3 5 7 9 10 10 9 10 12 13 14 15 15 15 17 19 19 18 19 22 24 24 23 23 22

GFSNGP_925_spd_069.txt.gz
Wind_Speed
21 19 13 17 19 21 19 18 19 16 18 16 10 8 11 8 3 3 7 8 8 7 9 10 12 13 15 13 12 13 15 15 16 16 15 17 17 20 19 18 17 19 19 13
21 18 18 15 15 17 18 19 19 19 20 14 14 10 8 10 6 6 3 3 4 6 8 10 10 16 16 14 14 15 20 19 19 19 18 20 20 19 22 22 19 16 11 5
17 19 19 18 18 17 17 18 16 17 14 15 12 10 10 12 5 6 4 3 4 7 9 10 12 16 18 18 18 17 18 18 18 19 19 20 20 22 20 19 15 10 5 5
8 1 15 10 15 17 19 18 16 17 17 15 14 13 4 3 6 6 6 7 7 8 12 13 15 17 19 20 20 20 20 21 19 20 20 18 17 18 15 10 8 5 6 5
8 12 14 17 10 9 13 16 16 18 18 15 12 3 7 5 5 8 9 10 12 15 16 17 18 20 21 20 20 21 20 20 19 19 18 16 15 11 9 8 6 4 2 2
6 15 19 14 14 10 13 13 16 16 12 11 3 5 9 13 12 13 13 16 17 18 19 18 18 19 20 20 19 19 19 20 18 16 14 9 9 8 6 5 3 2 1 2
11 8 9 13 14 10 14 9 12 9 7 8 9 5 12 15 14 16 16 18 18 18 17 18 18 19 20 20 19 20 19 17 14 11 10 9 8 6 5 3 2 1 2 3
8 8 12 10 9 11 12 12 6 7 8 8 8 11 14 15 15 15 15 18 18 18 18 18 19 19 20 19 19 18 17 14 13 11 9 8 7 5 3 2 2 2 2 4
7 5 7 14 10 14 6 7 7 7 7 8 14 14 16 16 16 15 18 18 19 19 20 19 18 18 19 18 18 17 15 14 12 10 8 6 5 3 2 1 1 1 3 4
11 6 14 9 11 10 6 8 6 4 7 10 14 14 17 17 16 16 20 20 20 21 20 19 17 17 18 17 16 15 14 12 10 8 6 4 3 2 0 1 1 2 4 5
18 19 19 13 10 11 11 10 9 8 8 11 13 16 17 17 17 15 20 21 22 21 20 18 18 16 15 15 15 15 13 11 9 7 4 4 3 2 1 3 1 1 2 4
8 9 8 14 4 7 10 11 10 9 10 12 15 17 18 16 18 20 20 22 21 21 20 18 17 15 14 13 13 13 12 9 7 6 4 2 1 3 3 3 5 4 5 2
12 3 4 3 3 5 6 7 7 9 11 11 13 14 15 14 20 21 21 21 21 21 20 19 17 15 12 10 9 9 9 9 7 5 3 1 1 2 4 4 4 5 4 6
3 3 7 5 2 3 3 2 1 5 6 9 12 18 18 15 20 21 20 20 21 21 19 18 17 15 12 11 11 10 8 8 5 4 2 0 2 3 4 6 7 6 7 6
6 5 6 1 1 2 3 2 5 6 5 8 13 14 18 15 17 20 22 22 22 21 19 18 17 14 11 10 9 8 5 4 3 3 2 1 2 4 5 6 8 10 10 10
5 3 3 1 3 3 3 4 6 8 9 10 11 15 18 19 22 22 22 22 22 19 18 18 16 11 9 8 7 6 5 3 3 1 1 2 3 5 6 7 9 10 10 11
6 4 2 3 4 5 6 7 7 9 10 12 14 18 24 25 25 21 20 20 23 22 18 16 13 9 7 6 5 3 1 1 1 1 2 3 5 6 7 8 9 11 11 10
6 6 6 6 7 9 11 11 12 15 15 25 29 29 23 18 16 19 19 20 21 18 14 11 10 8 7 6 5 3 2 1 2 3 4 5 5 7 7 9 10 12 12 12
12 14 14 15 14 14 13 14 19 23 25 25 26 22 23 21 20 20 18 17 15 14 10 9 9 8 7 5 4 3 2 3 3 4 5 6 7 8 9 10 11 12 13 13
18 20 21 19 22 19 15 21 23 23 24 26 26 23 20 18 18 18 14 13 10 11 10 8 7 6 5 5 4 3 4 5 6 6 7 7 9 10 11 10 11 13 13 14
15 16 17 18 20 23 22 22 24 23 21 21 22 20 19 17 15 14 12 11 10 9 9 7 6 5 3 3 4 4 6 7 7 9 9 10 11 12 12 12 13 13 14 14
14 15 17 22 23 24 24 25 25 24 23 23 21 20 18 16 13 14 14 11 9 6 5 4 3 2 2 4 4 6 7 9 9 11 11 12 12 13 13 13 13 14 14 15
20 23 24 23 24 26 26 25 23 23 22 19 18 16 14 12 8 6 8 6 6 4 3 4 2 3 6 5 6 7 8 9 11 11 12 12 12 13 14 14 14 15 15 16
25 25 26 25 25 26 23 22 23 22 22 20 17 13 10 10 10 9 9 7 6 3 4 4 2 5 7 7 8 9 10 11 11 12 12 12 13 13 14 15 15 16 16 17
25 25 24 22 22 20 21 20 20 18 17 16 14 13 11 11 10 8 7 6 5 4 4 5 7 8 8 9 10 10 11 12 12 13 14 13 13 15 15 15 16 16 17 18
24 22 23 23 20 19 17 16 16 14 12 13 12 11 10 9 8 7 6 5 5 6 7 8 9 10 10 11 11 12 12 13 13 13 13 14 15 16 16 16 16 16 17 18
23 22 22 22 21 19 18 16 15 14 13 11 11 10 9 8 7 7 6 6 8 9 9 10 11 11 12 11 14 13 13 13 13 13 14 15 15 15 15 15 16 16 17 17

GFSNGP_925_spd_072.txt.gz
Wind_Speed
19 19 17 18 20 19 20 16 14 13 16 15 12 1 4 3 4 8 14 6 5 4 10 12 15 21 19 18 17 17 19 20 19 19 19 18 16 18 19 19 19 17 17 15
20 20 22 16 20 21 21 20 19 15 17 14 13 12 9 7 3 4 3 8 6 2 12 12 22 19 15 15 13 14 21 22 20 20 19 19 20 20 21 19 17 17 19 18
16 19 17 18 16 13 13 14 13 13 10 11 9 10 7 2 3 4 6 4 2 2 11 18 21 21 18 20 18 20 22 22 22 22 23 22 23 22 21 22 21 18 13 9
9 3 23 10 12 15 13 12 13 14 11 10 11 10 2 6 1 7 7 6 5 6 12 22 24 22 23 21 19 20 20 21 21 22 22 22 23 23 23 21 16 9 9 8
7 14 12 19 10 9 9 14 12 14 13 12 13 5 3 5 3 5 8 7 6 10 14 24 24 24 23 21 20 20 20 21 20 21 21 21 21 21 17 13 10 10 8 7
6 11 16 9 12 4 7 12 13 12 9 11 6 4 1 9 6 9 9 11 12 14 16 18 23 26 25 24 22 21 20 21 21 21 20 20 17 13 12 11 10 8 9 5
7 5 5 8 12 7 14 5 12 12 11 7 5 3 12 10 10 10 12 15 17 18 17 18 20 21 21 21 19 20 22 21 20 19 17 15 15 14 11 10 10 7 4 3
6 6 15 5 4 19 8 2 7 6 5 4 11 11 12 11 12 12 13 17 19 17 17 19 20 20 21 20 22 23 22 20 17 16 15 13 13 11 9 9 7 6 3 2
5 3 2 6 5 5 5 2 4 6 5 1 12 10 11 11 12 12 13 16 18 17 19 19 20 20 20 22 22 21 19 18 17 15 13 12 12 9 8 7 6 6 4 2
6 7 11 5 3 3 5 5 4 4 4 3 10 11 11 11 11 11 14 14 17 19 16 17 18 18 21 21 20 18 18 17 16 15 13 11 10 7 8 6 6 4 2 1
13 15 7 15 11 6 5 6 5 5 3 7 9 11 12 12 13 12 14 16 18 16 16 15 17 19 18 17 17 17 16 14 12 12 11 9 10 11 5 6 4 4 4 2
2 5 4 3 5 5 4 6 5 3 4 4 5 8 10 9 10 13 14 16 16 17 18 18 17 15 14 13 15 16 15 14 12 10 7 7 9 7 4 1 1 2 3 4
4 2 4 4 2 6 5 7 8 5 2 5 2 6 9 7 11 15 16 16 17 18 19 19 17 17 15 14 15 18 17 12 12 9 9 8 4 3 6 4 3 3 3 4
7 7 2 4 3 4 3 6 6 5 5 3 6 11 11 10 17 16 16 19 21 21 19 20 20 17 15 13 16 16 16 13 11 9 8 5 4 3 2 3 2 3 8 6
7 5 4 6 3 5 4 2 5 6 7 8 12 13 20 15 12 17 20 23 24 24 23 22 20 18 15 16 17 15 12 10 7 5 2 3 3 2 3 4 5 6 8 6
9 7 6 3 6 5 5 6 8 7 8 9 11 13 21 28 31 31 30 29 27 23 21 22 18 15 14 11 9 9 9 7 6 4 3 2 3 4 5 5 6 7 8 8
10 6 6 7 7 7 9 8 8 9 12 17 21 31 32 31 31 30 28 30 29 25 19 16 13 12 10 11 10 9 6 5 4 3 3 3 4 5 6 7 8 9 10 11
12 11 8 11 10 12 15 16 15 18 17 23 27 29 27 26 19 23 24 26 24 21 15 13 12 11 9 9 8 8 6 5 4 4 4 5 5 7 7 8 10 10 10 11
17 17 18 17 16 15 14 14 19 22 23 25 27 24 25 24 22 21 21 20 17 15 11 11 11 10 9 9 8 7 6 5 5 5 5 6 7 9 9 9 11 10 11 13
16 19 22 21 23 22 16 22 25 25 24 29 28 26 24 22 21 19 18 17 13 12 11 9 9 8 7 8 7 6 5 5 6 6 7 6 10 10 9 12 11 10 11 13
15 15 18 18 21 26 24 24 26 24 24 25 26 23 23 21 20 19 15 14 12 11 10 9 9 8 7 7 7 5 7 7 9 9 10 10 11 10 11 11 11 11 12 13
13 15 17 24 24 26 27 28 28 28 27 26 25 24 21 18 20 23 16 14 9 8 7 10 8 7 8 9 8 8 9 10 10 11 12 12 12 12 12 13 13 13 13 14
20 22 24 25 25 28 29 28 27 26 24 22 20 19 19 17 13 11 11 10 10 9 12 8 9 10 11 10 9 10 10 11 12 12 13 12 13 14 14 14 13 14 14 15
23 24 25 26 28 28 22 25 26 25 26 25 26 22 15 15 17 17 16 12 10 5 7 9 11 13 12 12 12 12 12 13 14 13 13 16 16 15 15 16 16 14 14 15
25 25 25 24 22 20 23 23 22 22 21 20 19 19 18 23 19 16 14 13 11 12 9 13 10 15 12 13 14 15 16 15 14 15 15 13 16 17 17 17 16 15 16 17
24 22 24 25 22 21 20 19 17 16 17 17 18 18 17 16 15 13 12 11 12 11 11 11 13 12 13 12 15 16 15 16 17 15 15 15 17 17 17 18 18 17 17 18
24 23 23 23 23 23 21 19 17 16 16 16 16 16 16 15 15 14 13 13 11 11 12 13 13 15 15 17 16 15 16 17 17 17 16 16 18 18 18 18 18 19 20 20

GFSNGP_925_spd_075.txt.gz
Wind_Speed
18 18 11 9 10 12 11 11 7 6 8 9 8 6 7 7 8 9 7 6 4 8 7 11 18 25 23 21 20 19 20 21 21 23 24 23 20 19 18 19 20 21 21 19
15 13 14 14 11 15 13 10 7 7 11 12 9 5 7 9 9 10 8 6 2 5 13 10 17 20 25 23 19 20 22 22 22 22 21 20 18 18 19 20 19 19 20 20
13 12 7 10 11 8 9 13 9 10 9 7 6 5 4 6 8 8 9 7 8 13 9 12 16 21 20 23 21 21 23 22 21 21 21 21 21 22 22 22 22 21 20 18
4 2 14 4 4 5 9 11 6 1 2 3 6 4 7 7 8 10 9 7 10 10 13 17 21 23 24 23 23 24 23 23 23 24 25 25 25 26 25 25 24 22 17 13
5 10 4 11 5 4 5 8 6 4 4 4 5 5 2 6 6 7 8 7 9 18 21 22 23 23 23 22 23 21 21 22 25 26 27 27 27 27 26 25 19 14 13 14
2 4 9 3 9 6 3 6 4 2 5 4 3 4 4 5 7 9 9 15 18 23 24 25 23 23 22 21 20 20 21 22 23 25 27 26 27 26 23 18 14 13 19 19
1 2 6 5 13 2 6 7 6 2 4 6 3 6 6 8 6 8 9 16 22 23 20 22 26 25 21 21 18 20 21 22 23 25 25 25 24 21 19 15 23 21 20 15
4 4 4 10 3 8 5 6 5 0 2 2 7 7 9 8 9 10 11 15 22 20 20 24 24 22 19 19 21 21 23 22 21 23 19 20 18 18 23 21 18 15 13 15
4 4 8 6 4 1 3 3 4 3 5 8 8 6 9 8 9 7 8 14 21 21 22 21 22 26 20 21 24 21 19 19 15 20 22 21 20 17 17 16 14 14 14 14
3 5 12 6 5 5 8 1 4 6 4 6 6 8 7 8 7 7 8 10 18 20 17 18 20 22 26 26 24 22 21 20 20 21 19 17 15 14 16 15 14 12 12 14
4 7 14 8 4 6 6 9 5 6 2 5 7 6 6 6 7 7 10 19 23 20 19 20 26 25 25 25 25 26 23 21 19 18 17 18 16 12 10 9 5 8 7 7
6 11 7 3 3 5 9 3 8 3 2 3 6 8 6 8 7 12 15 21 23 27 28 24 29 26 22 23 28 28 26 22 19 18 12 12 11 10 8 5 3 2 1 4
5 2 4 8 7 4 4 6 3 7 5 3 4 8 7 8 12 23 25 28 27 28 31 31 33 33 28 27 28 27 26 21 19 17 16 15 10 5 3 1 1 2 2 3
4 7 4 2 5 6 7 6 6 7 9 8 9 15 19 17 24 25 25 30 34 34 33 33 33 30 26 26 26 25 22 18 16 13 9 8 7 5 5 3 1 2 5 7
5 6 6 8 8 8 6 8 12 12 13 15 21 18 23 19 18 26 30 34 37 36 30 31 31 25 21 21 22 19 14 11 9 7 6 5 3 2 3 4 4 4 6 4
8 8 8 11 9 9 11 9 11 12 15 15 18 23 29 34 34 32 28 27 31 24 25 30 27 19 16 15 14 12 12 9 6 5 3 1 2 3 5 5 6 6 7 5
11 7 11 9 11 12 14 14 14 14 15 17 19 26 31 33 32 30 29 31 34 30 26 24 21 17 16 14 13 11 9 7 5 3 2 3 3 4 6 7 7 8 8 6
13 12 12 15 14 14 14 14 14 17 16 22 25 26 27 26 19 24 26 30 31 28 23 18 16 15 14 11 9 7 6 6 5 4 4 5 7 9 9 9 7 8 7 9
17 17 16 18 16 17 15 15 19 21 25 25 28 25 27 27 27 26 26 26 22 20 16 15 15 15 12 11 9 9 9 8 7 7 8 8 7 11 9 9 12 12 9 10
16 18 22 21 24 23 17 24 26 26 25 30 30 29 27 25 26 26 25 22 17 16 14 13 14 13 12 11 10 9 9 9 10 9 9 10 11 11 11 10 10 11 11 11
16 17 18 19 19 25 27 27 29 26 25 29 30 25 25 24 25 22 20 18 14 15 15 14 14 13 13 11 11 10 11 12 12 14 14 14 14 13 14 13 13 13 13 13
14 16 18 24 24 24 28 29 31 30 31 30 28 26 25 24 25 24 21 18 13 16 14 16 15 14 13 12 13 13 13 14 15 15 16 14 14 15 16 16 15 13 13 14
21 23 25 26 25 27 30 30 29 28 28 25 24 25 23 18 17 17 15 15 16 15 16 17 17 16 14 15 14 14 15 16 16 15 15 18 17 15 16 18 18 17 15 12
26 26 27 28 30 30 23 26 28 29 29 30 27 22 23 24 23 22 20 16 17 17 16 16 17 15 14 15 17 18 17 17 17 18 16 14 16 18 19 19 18 17 17 17
27 26 26 26 24 21 25 25 26 26 26 26 26 27 26 23 23 20 20 19 17 17 17 15 14 15 14 16 18 16 16 17 17 17 17 17 17 17 17 18 18 17 18 19
24 22 24 25 23 21 20 20 20 20 21 21 22 24 23 22 22 20 18 17 16 15 15 14 15 15 16 16 16 16 16 17 17 16 15 16 18 18 17 17 18 20 21 22
24 24 24 24 24 23 23 22 20 19 21 22 22 22 22 20 19 18 16 15 14 14 14 13 14 15 16 16 15 15 17 15 14 16 19 19 17 16 18 21 24 22 19 19

GFSNGP_925_spd_078.txt.gz
Wind_Speed
12 7 5 10 16 16 16 9 12 9 10 10 8 8 9 10 7 7 9 9 8 6 4 4 12 17 24 28 31 34 33 27 19 22 20 22 23 25 27 28 28 26 27 25
4 9 10 16 21 14 11 8 8 7 7 10 10 6 5 9 12 9 8 9 9 9 11 7 13 17 17 17 20 23 24 21 19 18 20 24 24 23 23 24 26 26 23 24
5 10 13 9 16 19 6 6 9 9 9 7 7 7 9 10 9 10 9 9 9 12 14 14 15 19 19 21 21 21 22 20 21 23 23 22 23 24 24 25 24 24 23 23
3 6 8 8 12 19 11 11 8 5 6 8 9 8 8 8 10 10 7 8 6 7 11 16 17 17 21 22 20 20 21 21 23 25 25 24 23 23 24 24 24 24 22 21
5 7 3 8 12 5 7 9 7 9 7 6 4 3 3 2 4 10 9 7 6 13 18 23 22 23 23 21 21 20 19 21 22 23 24 24 23 23 23 24 22 23 21 18
2 7 8 4 15 16 1 6 5 8 8 5 5 4 4 5 5 7 8 14 16 19 22 24 23 24 23 19 18 17 19 19 21 20 21 22 23 24 23 23 22 17 18 17
1 1 6 8 7 7 8 7 5 3 5 5 5 6 5 8 5 6 10 14 19 19 18 20 22 21 18 16 14 16 18 17 17 17 20 22 23 24 23 18 17 18 20 20
3 1 6 4 8 6 6 4 4 1 2 6 5 5 7 8 9 10 12 14 17 17 17 21 21 21 18 15 18 19 18 17 16 16 18 21 22 18 15 19 23 25 23 19
5 6 5 4 2 6 5 2 4 5 2 1 6 6 8 8 9 8 10 14 18 21 21 21 21 23 23 21 20 17 16 15 15 14 15 14 15 16 21 22 22 22 21 19
4 8 11 6 4 3 3 4 3 3 3 5 3 5 5 7 7 6 9 13 20 22 18 16 20 22 27 25 22 20 20 18 19 21 22 20 20 18 17 14 15 17 16 16
3 6 5 7 7 7 7 4 2 2 3 6 7 7 6 6 7 8 12 16 19 20 20 19 22 21 22 25 27 29 27 25 25 25 23 23 22 18 16 12 7 9 9 9
5 9 6 6 8 6 7 5 2 2 3 4 5 7 7 9 9 13 17 22 24 24 27 23 28 29 26 26 31 31 28 25 24 22 20 19 17 16 13 11 8 6 4 1
10 6 11 2 2 1 6 4 7 7 7 4 6 9 11 10 16 26 24 26 26 26 28 29 31 32 29 29 30 29 28 26 25 21 18 15 13 11 8 5 4 3 3 3
8 5 1 4 5 2 7 9 12 13 14 11 14 21 24 18 24 26 25 28 30 31 31 31 33 30 27 28 26 25 23 20 18 16 13 10 8 6 5 5 4 3 5 5
9 3 3 8 8 7 8 10 15 13 12 15 20 19 23 20 19 26 28 30 32 33 30 31 32 28 22 21 21 18 16 14 12 11 10 8 6 5 4 4 4 2 3 2
5 8 8 10 10 9 13 12 16 13 14 15 18 23 28 31 31 29 26 23 29 24 24 30 29 23 20 18 18 17 16 14 12 10 8 8 7 6 5 6 5 5 5 2
9 6 9 8 9 12 14 12 14 13 15 16 19 26 30 31 31 29 28 29 33 31 29 29 25 22 21 20 19 17 15 14 11 9 9 8 7 8 9 8 8 6 4 4
9 12 12 11 13 14 13 15 15 17 16 22 25 27 26 26 19 24 26 30 33 32 28 24 23 22 22 19 17 15 14 12 13 11 10 10 9 11 10 8 9 10 9 7
15 18 15 14 13 16 15 15 19 25 25 26 27 25 26 26 26 26 26 27 25 24 20 21 21 22 20 18 17 16 15 13 13 14 12 11 12 12 11 11 10 9 9 9
18 19 21 19 21 22 16 23 26 27 27 32 30 27 26 24 26 27 29 27 23 22 20 19 20 20 20 17 15 15 15 16 15 15 14 14 14 14 14 13 13 14 13 11
17 17 18 17 19 24 25 25 27 26 25 28 30 25 25 24 24 24 25 22 19 21 21 21 21 20 18 16 17 17 16 16 16 15 15 16 15 15 14 14 14 13 12 12
14 16 17 23 23 25 28 30 31 31 29 28 28 29 28 26 27 28 24 24 21 20 22 23 21 17 17 16 16 17 16 16 16 15 15 13 13 14 15 16 16 15 12 10
19 22 25 25 25 27 30 30 29 29 28 26 25 24 23 20 18 19 17 17 22 21 22 21 19 17 17 17 16 15 15 15 15 15 14 14 14 15 13 13 12 14 13 14
24 26 27 28 29 29 22 26 30 29 30 28 26 24 24 24 24 26 26 23 21 21 21 18 16 15 15 15 15 15 15 15 14 13 12 13 14 14 15 15 14 14 16 18
25 25 26 25 24 21 25 25 28 28 28 27 25 23 22 21 26 22 23 21 18 18 18 15 14 14 15 14 14 14 13 13 13 13 14 15 15 14 14 15 18 20 21 20
22 20 22 21 20 20 20 21 22 21 22 22 22 23 24 26 24 22 20 18 16 15 15 14 14 14 13 13 13 13 12 12 14 15 16 14 13 14 17 20 22 22 20 19
23 22 22 22 21 20 20 21 21 20 20 22 23 24 24 23 22 20 18 16 15 14 13 13 13 13 13 12 10 10 11 13 14 15 14 15 17 18 20 23 24 22 20 19

GFSNGP_925_spd_084.txt.gz
Wind_Speed
11 14 20 26 22 10 15 12 10 5 10 9 10 10 10 9 5 7 8 8 9 10 10 10 18 22 27 29 30 34 34 33 36 32 30 33 34 34 35 33 31 34 32 35
7 13 18 20 21 14 14 5 6 5 6 7 9 6 4 9 9 9 9 11 11 12 9 10 18 22 20 19 22 27 29 27 25 25 27 27 28 26 25 24 25 28 29 28
9 10 20 10 24 21 8 6 6 7 7 6 8 9 10 14 9 11 10 10 13 14 14 9 12 16 14 13 13 16 21 18 16 20 18 18 14 14 15 19 21 21 20 20
5 7 8 8 5 14 14 12 9 5 5 7 8 10 12 12 10 11 11 9 10 7 6 13 15 15 15 13 13 13 14 14 14 13 13 13 13 14 16 16 16 15 14 14
3 4 8 15 6 5 7 18 14 13 7 8 12 5 10 10 11 14 12 11 6 14 16 17 18 18 17 15 15 15 14 13 13 13 14 14 14 13 13 14 14 15 14 14
3 3 5 6 9 15 0 10 6 4 11 13 4 4 7 7 6 7 4 5 8 17 20 18 18 19 22 19 18 17 15 12 9 9 10 11 12 13 14 15 16 17 19 19
8 5 6 4 9 19 6 5 6 4 8 6 5 7 6 6 4 4 5 12 19 19 18 19 21 23 20 20 17 17 15 14 12 9 9 10 13 14 15 18 22 22 22 19
4 5 7 3 11 6 5 7 7 5 7 11 7 8 5 3 4 11 13 13 19 19 20 20 23 26 22 20 19 19 19 18 17 15 14 14 15 15 18 22 23 22 22 21
6 4 4 3 6 18 11 10 8 6 9 11 11 8 2 4 8 8 12 14 20 22 21 19 22 26 24 22 23 22 21 20 19 19 19 18 20 20 19 18 19 18 18 18
1 6 12 10 8 12 12 14 6 4 4 7 7 2 6 8 5 9 10 12 17 23 21 21 24 25 27 25 24 24 25 23 23 24 23 21 20 18 16 13 14 14 13 11
6 12 16 14 7 8 8 11 7 4 4 5 4 6 5 10 9 11 14 20 20 22 24 21 26 23 22 21 24 28 28 25 24 26 27 29 29 26 27 23 16 14 11 8
6 9 3 9 8 12 8 7 4 1 3 3 12 10 11 11 12 13 15 17 27 25 26 24 30 27 22 19 25 30 27 25 23 25 26 25 25 25 22 18 15 12 8 5
4 4 5 14 11 7 3 4 7 10 9 11 9 12 16 15 15 18 20 22 26 23 24 25 31 30 23 24 28 31 30 25 25 24 22 20 19 16 14 16 17 16 14 11
7 4 6 5 5 1 8 5 7 14 16 15 12 18 21 19 21 22 17 24 29 31 27 30 31 28 26 32 34 33 31 27 26 24 23 22 21 19 17 15 14 15 14 12
7 6 7 9 3 3 5 8 10 13 14 14 16 13 18 18 18 23 21 27 33 32 31 28 29 26 27 28 31 31 29 27 27 26 24 22 20 20 18 17 16 14 13 12
3 6 8 6 6 6 7 7 10 11 13 16 14 18 25 27 27 28 26 21 29 24 26 29 30 27 28 29 31 31 29 26 25 24 23 23 21 21 20 18 17 16 16 14
4 5 4 4 5 6 10 10 10 12 13 16 17 25 28 29 30 31 29 29 33 33 30 30 28 28 28 28 29 26 26 26 24 24 23 21 20 20 18 18 17 16 15 15
6 7 7 7 11 12 13 12 13 13 14 24 27 27 25 25 21 26 27 30 34 35 30 28 28 28 27 26 26 25 25 24 23 23 21 21 20 19 18 16 14 13 12 12
5 6 8 10 12 13 13 13 17 22 22 25 29 27 28 27 29 29 29 30 28 27 23 25 27 27 26 23 24 23 23 23 23 22 20 19 19 18 17 16 15 13 12 12
9 10 15 14 19 19 16 21 26 27 25 29 32 31 28 26 27 30 31 30 24 22 20 21 24 24 23 22 22 23 23 23 22 21 20 20 18 17 16 15 14 14 13 13
9 11 14 15 15 22 24 26 30 26 28 29 33 29 28 28 27 26 26 23 20 21 21 21 22 21 21 21 22 22 22 23 22 20 19 17 16 15 14 13 13 12 12 12
8 11 13 18 17 19 24 30 34 33 31 31 32 32 31 29 30 31 26 24 19 23 23 22 20 19 20 20 21 22 22 20 19 17 16 14 13 12 12 11 11 12 13 16
14 17 18 20 21 23 23 29 32 33 31 29 28 27 26 23 21 22 18 17 23 24 24 22 19 19 19 20 20 19 18 17 16 14 12 11 11 10 10 11 12 15 17 17
20 22 22 25 28 27 16 27 31 31 33 31 29 25 25 27 27 26 27 25 24 23 22 18 17 17 17 17 17 16 15 14 13 12 11 10 9 9 10 13 16 17 16 16
22 23 24 23 21 19 26 27 30 28 29 29 27 25 23 21 25 24 26 24 21 21 20 16 16 15 14 14 14 13 12 13 12 10 9 8 8 10 14 16 16 17 17 17
21 20 21 20 20 20 21 21 22 20 23 25 24 25 27 29 28 26 23 21 19 18 18 14 12 12 12 12 11 11 11 9 8 7 7 8 12 15 16 15 16 17 17 17
22 21 21 21 20 20 21 21 21 19 20 23 24 24 27 26 24 23 21 19 17 16 14 13 13 12 10 9 9 9 8 7 6 6 9 13 15 15 16 16 16 16 17 19

GFSNGP_925_spd_087.txt.gz
Wind_Speed
11 10 14 13 14 17 20 18 14 10 16 15 16 10 13 10 4 5 7 6 11 12 14 16 21 24 25 26 28 30 31 32 33 30 27 26 27 29 27 29 30 30 30 33
6 13 15 18 20 20 22 20 21 18 19 7 12 9 9 9 7 9 8 9 10 11 9 13 21 23 24 24 25 26 28 29 26 24 22 24 25 25 27 29 28 30 33 35
4 1 8 12 12 12 19 19 17 17 11 8 9 8 8 10 8 10 12 12 11 11 13 13 19 19 19 19 20 22 21 18 19 23 24 23 22 22 24 25 27 27 26 25
5 6 9 8 5 11 14 22 18 15 7 9 8 7 8 10 11 13 13 15 14 11 6 10 12 15 16 14 15 15 14 15 16 15 14 13 14 15 13 12 9 8 8 7
4 7 15 17 4 1 4 18 13 18 18 13 12 6 17 12 11 14 16 13 9 7 11 15 17 21 21 18 19 17 15 14 13 13 14 12 10 7 7 8 9 10 10 11
5 7 6 4 4 1 1 10 19 21 14 10 10 9 14 5 3 7 5 1 5 11 18 18 20 23 25 21 22 19 18 16 13 12 12 12 12 13 13 14 17 17 20 20
11 9 10 5 6 3 3 5 23 20 21 14 7 8 4 6 6 6 9 8 13 17 17 19 23 26 25 24 21 23 23 21 18 15 16 15 16 15 17 20 23 24 26 23
7 6 9 4 3 2 2 8 17 21 18 12 12 8 4 5 7 12 13 10 15 18 22 16 22 27 25 24 24 27 27 25 22 18 17 16 18 18 21 24 26 24 26 25
7 3 5 5 3 7 7 4 15 16 18 9 14 9 6 7 12 13 13 11 15 18 23 21 22 29 27 22 25 30 29 25 26 24 21 20 23 22 22 21 20 18 18 19
1 3 6 7 10 10 8 11 16 16 12 3 7 9 9 11 12 11 13 14 15 19 21 21 21 23 25 23 25 28 29 25 26 29 28 26 26 25 24 21 20 18 17 16
6 10 7 6 2 6 14 16 14 13 9 8 6 9 8 10 12 12 13 18 18 25 22 23 25 27 20 21 29 29 29 28 28 28 30 33 33 29 31 25 21 17 14 11
8 9 6 13 3 6 12 11 11 11 4 6 10 8 10 11 12 13 13 17 21 22 23 24 26 24 21 23 27 29 29 26 25 23 22 24 27 30 29 26 23 21 18 14
10 5 7 9 7 5 5 4 6 8 4 13 13 14 10 11 14 18 18 21 21 21 23 27 27 30 29 30 34 31 30 25 24 21 20 19 19 20 22 23 26 23 18 15
11 5 8 9 3 7 1 6 10 12 11 11 15 17 19 10 14 19 20 20 25 26 27 29 33 32 30 34 37 35 33 28 24 20 18 18 18 17 16 14 14 15 21 22
17 8 12 6 7 2 3 7 8 10 7 9 18 18 21 16 14 20 21 26 30 30 27 30 32 30 33 35 35 31 28 25 25 23 20 19 18 17 17 16 15 13 12 14
8 3 7 6 8 3 3 6 10 10 10 10 12 20 25 28 26 24 24 25 28 23 27 30 31 28 33 34 34 31 27 24 22 20 19 18 17 17 16 15 15 14 14 13
8 7 4 4 1 2 4 5 8 11 13 14 17 23 28 28 29 27 29 31 32 31 30 31 29 31 30 29 27 25 24 22 21 19 18 17 17 17 16 14 13 13 13 13
5 8 9 11 7 7 9 10 12 12 15 23 25 24 25 24 19 25 27 30 34 35 31 29 30 29 25 23 24 23 21 20 19 19 17 17 17 15 14 14 13 11 10 10
5 4 5 6 7 11 12 12 16 19 23 25 27 24 28 27 26 26 27 29 28 27 22 24 25 25 25 23 24 22 21 20 20 19 18 17 16 15 14 13 12 11 9 9
5 6 9 10 13 16 12 19 23 22 23 30 32 29 27 27 28 28 28 27 22 21 20 21 23 23 23 23 23 22 21 20 19 17 16 16 14 13 12 11 10 10 9 8
6 7 10 11 12 16 18 20 23 22 26 27 32 30 28 27 26 25 25 22 19 20 21 21 20 19 20 22 23 23 22 20 18 16 14 13 12 11 10 9 8 8 8 9
6 9 10 16 17 19 20 22 23 26 26 26 30 32 31 28 30 30 24 23 18 19 19 19 20 21 21 21 21 21 20 19 16 14 13 11 10 9 8 7 7 8 10 11
13 15 17 18 20 23 27 26 25 25 28 24 24 27 26 23 21 21 18 16 20 23 22 23 22 22 23 23 23 22 19 17 15 14 13 11 9 7 6 7 9 11 11 11
17 20 22 25 28 28 18 26 29 27 29 29 25 23 24 26 26 22 25 25 25 24 23 22 21 20 21 21 20 18 16 14 13 12 10 8 7 7 9 10 10 11 11 11
19 20 21 22 22 20 26 27 29 26 28 27 23 22 22 19 24 21 21 23 23 23 22 19 19 19 19 18 16 14 13 11 10 9 7 7 8 9 10 10 10 10 10 12
17 17 19 20 20 20 21 21 22 20 21 23 23 23 25 25 26 23 22 22 21 20 20 18 17 16 15 13 12 10 9 8 7 6 7 8 9 9 9 9 10 10 12 14
20 20 20 22 21 21 21 21 22 20 19 21 23 19 21 21 22 22 21 20 18 18 18 16 14 12 10 9 7 6 6 6 5 5 7 9 9 9 9 10 11 12 14 16

GFSNGP_925_spd_090.txt.gz
Wind_Speed
9 12 15 16 16 17 17 14 15 16 19 16 12 16 20 19 19 12 5 10 13 14 14 16 21 24 25 25 27 28 29 29 29 26 25 25 25 24 24 25 26 26 25 26
8 13 15 20 22 21 20 20 22 19 24 20 20 19 18 18 18 15 11 9 8 12 14 16 21 24 24 24 25 26 27 27 24 24 24 24 23 23 23 23 22 22 22 23
4 2 7 13 19 25 23 19 18 19 19 17 19 20 22 18 18 15 14 12 11 11 14 16 22 22 22 22 22 24 23 22 22 21 20 20 20 20 19 18 17 17 16 18
4 5 8 9 6 12 17 13 10 13 14 16 19 19 19 13 12 12 11 12 13 13 10 14 16 19 20 21 22 22 21 20 18 17 16 13 11 11 12 12 10 6 3 2
4 8 14 18 9 10 13 14 5 7 10 14 14 21 23 21 17 17 18 16 14 17 14 10 14 18 21 20 22 20 18 17 16 16 16 16 14 12 10 11 11 11 11 12
5 4 4 5 10 12 10 13 9 10 12 11 15 9 10 16 15 10 10 7 7 8 7 12 15 19 19 17 17 16 17 19 18 18 20 19 18 17 16 17 19 20 22 22
10 8 9 11 16 12 7 5 15 12 14 14 12 11 19 19 12 5 6 4 6 8 10 14 18 21 20 21 23 21 25 26 25 24 25 23 23 21 22 25 27 28 29 25
9 8 11 1 3 5 8 12 16 15 10 11 20 19 15 10 8 4 2 2 12 12 16 17 20 25 25 22 23 27 29 30 28 25 25 26 27 26 26 28 30 26 27 26
8 6 3 4 10 14 15 15 13 18 15 8 18 16 9 7 5 2 3 6 16 18 22 20 21 27 30 25 29 28 29 28 29 29 27 28 27 27 26 24 23 21 20 19
11 12 13 12 11 13 12 12 15 14 14 17 13 2 3 2 3 3 6 8 17 22 21 21 25 25 27 33 30 29 28 27 26 30 29 34 30 25 25 22 20 18 16 15
12 13 13 13 10 11 11 16 14 13 15 15 8 5 8 3 2 1 8 15 19 20 24 23 27 25 25 30 31 30 29 30 28 30 33 36 34 29 29 24 19 18 15 13
10 11 11 16 15 8 13 13 13 13 14 7 5 5 10 8 7 3 7 15 18 22 23 25 26 26 26 26 28 32 31 25 26 26 28 29 33 35 32 29 26 24 21 20
14 14 15 15 13 14 8 9 7 7 9 4 6 7 9 10 12 12 13 14 17 25 20 24 27 25 22 25 29 32 32 28 27 26 24 24 24 25 26 29 34 30 27 25
14 13 16 13 12 8 8 3 6 8 7 10 9 12 12 11 17 15 17 18 20 31 24 28 30 29 29 33 39 39 35 30 25 22 22 20 18 18 16 16 16 17 20 18
14 10 14 13 10 9 4 1 2 4 5 10 12 11 14 13 13 19 21 21 25 26 28 29 31 29 30 34 35 30 28 26 24 23 21 21 19 19 17 16 14 12 10 12
13 13 11 9 8 4 1 1 2 4 5 8 12 14 18 21 21 21 20 21 26 23 26 29 29 26 31 34 32 30 28 25 23 22 20 19 18 16 16 15 13 12 11 10
12 11 14 14 9 7 4 3 4 6 8 9 13 19 20 24 24 23 26 27 30 31 28 28 26 27 26 25 25 24 23 22 22 20 19 17 16 15 15 14 12 11 10 10
7 8 8 12 13 12 5 4 8 10 11 17 17 21 19 20 17 23 25 29 31 32 28 24 23 22 23 21 21 22 21 20 19 19 17 17 17 15 14 12 11 10 9 8
8 8 7 6 7 4 5 7 10 15 18 19 19 18 22 25 26 26 27 29 26 25 21 21 22 23 23 20 19 19 19 19 20 19 19 17 16 14 13 12 11 9 8 7
6 5 4 5 7 9 9 14 17 17 16 20 24 24 21 23 26 26 29 28 22 21 20 20 21 22 22 20 20 19 19 19 18 17 16 16 14 13 12 11 10 8 7 6
6 6 7 9 12 15 16 17 20 19 20 20 23 23 22 21 24 24 25 23 20 20 20 19 19 19 19 19 19 19 18 18 17 16 14 14 13 11 10 9 7 6 5 5
5 7 10 14 15 18 19 22 25 25 25 26 26 28 30 23 22 27 24 24 19 17 18 18 18 19 19 19 18 18 17 16 15 14 13 12 10 9 7 6 5 4 5 5
9 11 14 15 18 21 23 25 26 28 28 24 23 23 24 21 13 16 18 16 20 19 20 20 20 20 20 19 17 15 15 14 14 13 11 10 8 6 5 4 4 4 4 5
14 15 18 20 22 23 17 23 27 28 30 29 28 21 21 25 21 18 22 21 21 21 21 18 18 18 17 16 16 12 12 12 12 10 9 8 6 4 4 3 3 4 4 6
16 18 18 18 19 18 23 25 27 27 28 26 25 22 19 16 17 18 19 20 21 20 19 18 17 16 15 14 12 10 10 10 9 8 6 5 4 3 3 3 3 4 5 7
14 15 17 17 18 18 18 19 21 20 23 23 22 22 20 20 20 18 18 18 17 16 15 13 12 12 11 11 10 9 8 7 6 5 5 3 2 2 3 4 5 6 7 8
18 18 19 19 17 17 18 18 21 20 19 20 21 16 16 17 18 17 16 14 14 14 12 11 10 9 8 8 8 7 5 4 4 2 2 2 2 3 5 6 7 8 9 10

GFSNGP_925_spd_093.txt.gz
Wind_Speed
13 14 14 14 13 14 16 14 14 13 15 16 16 14 12 14 14 14 15 7 9 13 14 16 22 26 27 28 29 29 29 28 28 27 26 26 26 26 26 27 27 26 25 25
12 14 15 18 20 20 21 20 21 18 19 18 17 19 19 20 20 19 16 12 9 11 13 15 18 23 25 27 28 30 29 28 27 27 26 26 25 24 23 22 21 21 21 22
10 10 9 10 17 19 20 22 20 20 18 15 15 19 18 18 20 20 19 17 15 11 10 12 18 21 22 24 25 29 29 29 28 27 26 25 24 22 21 20 19 13 13 9
5 3 6 10 8 9 14 16 14 20 14 12 15 18 19 22 19 20 13 16 9 10 11 16 15 20 21 22 24 25 25 25 26 26 25 23 22 18 16 15 12 10 9 8
4 8 12 16 6 7 7 11 14 10 10 10 11 17 18 19 19 14 12 15 16 20 15 19 15 18 21 22 22 22 22 22 21 21 21 17 20 18 17 18 18 17 17 17
6 7 5 7 6 6 11 6 5 9 8 9 13 11 11 21 24 22 15 16 16 18 17 13 10 14 20 22 22 19 13 11 15 18 21 22 23 23 23 25 28 27 28 25
12 7 8 13 12 8 8 3 10 11 13 14 9 10 17 21 22 18 18 20 21 17 10 7 9 13 14 13 18 18 25 24 23 25 28 27 29 28 30 32 34 33 34 31
8 5 10 8 3 4 7 10 13 13 14 16 18 13 15 16 20 15 15 16 15 9 3 2 8 20 18 20 21 28 31 31 32 31 28 30 32 31 32 33 32 28 31 28
9 9 11 4 7 9 9 12 10 12 16 16 17 21 11 14 11 7 10 11 8 7 10 12 16 24 24 22 28 33 36 32 32 34 32 28 27 26 28 26 26 24 24 23
9 9 12 11 11 10 12 9 9 13 13 15 20 20 8 11 8 6 6 8 7 9 11 14 16 21 28 25 30 35 35 33 33 35 34 31 30 25 23 23 22 20 23 19
11 13 11 12 7 7 10 11 13 11 13 15 17 11 2 0 2 6 9 10 6 8 13 16 20 23 26 27 32 33 32 31 30 34 36 33 33 30 27 22 19 24 21 20
7 8 8 12 13 13 11 11 10 10 12 9 10 7 5 5 5 9 13 14 9 9 11 16 19 20 23 24 30 34 31 27 25 33 34 28 35 39 36 33 32 30 28 28
9 10 12 12 12 12 8 10 8 8 7 6 5 8 7 5 9 13 20 23 19 18 18 19 22 23 19 21 27 30 31 28 27 31 27 26 29 29 30 33 34 31 29 27
11 13 14 13 13 15 11 5 2 5 7 6 7 13 12 9 14 14 14 20 26 26 26 25 29 33 26 29 34 34 32 28 28 26 24 25 24 22 20 21 21 22 21 21
8 10 10 12 12 9 6 3 3 1 3 6 8 9 11 11 11 15 17 21 25 28 24 29 28 32 30 32 33 29 29 29 27 27 26 25 23 21 20 20 18 17 14 15
12 11 12 10 12 10 9 6 6 3 4 7 8 11 12 16 18 19 21 19 21 21 24 29 30 27 33 34 33 31 31 29 26 25 23 23 21 20 19 19 17 15 13 10
12 12 14 12 12 13 14 11 8 3 4 8 11 14 15 16 17 21 21 25 28 27 27 29 26 26 27 25 26 26 26 24 23 24 23 21 20 19 17 16 15 14 13 12
10 10 12 12 11 11 11 9 4 2 6 13 16 17 14 15 11 20 21 26 28 30 27 23 22 23 23 22 22 22 21 21 21 21 20 19 19 18 17 15 14 13 11 11
11 10 10 9 10 8 5 9 13 15 16 17 18 17 18 20 18 20 22 25 23 23 20 20 21 22 21 20 21 21 22 22 22 21 20 19 19 17 16 15 13 11 10 9
10 10 8 8 9 7 6 10 14 15 17 22 24 23 21 19 19 21 24 25 21 21 19 19 20 21 21 20 21 21 22 21 20 19 18 18 17 16 16 14 12 9 8 7
8 8 6 7 9 12 13 13 15 17 19 20 24 23 24 23 23 19 20 19 18 19 20 18 18 18 19 20 21 21 20 19 19 18 16 16 15 14 13 10 9 8 6 6
7 6 7 9 11 13 15 17 20 23 25 26 27 27 28 25 28 29 23 20 16 14 17 19 18 19 20 20 20 19 18 17 16 16 15 13 13 11 10 9 8 7 6 6
7 7 9 9 12 15 17 18 19 21 22 23 23 23 21 20 17 18 16 16 18 16 20 21 19 20 19 18 18 17 17 15 15 14 13 11 10 9 8 8 7 5 5 5
10 12 13 14 15 17 15 20 23 24 25 25 23 21 22 24 25 23 22 19 20 20 21 19 17 17 16 16 16 15 14 13 12 12 11 10 9 8 7 7 5 4 4 5
11 12 13 14 15 15 19 22 24 23 24 24 22 21 19 17 20 19 19 19 18 19 20 19 17 14 14 13 13 13 11 11 10 9 8 8 7 7 5 4 4 3 4 5
11 12 14 14 15 15 16 17 18 17 18 20 20 19 21 21 21 20 18 17 17 16 15 12 11 11 12 12 12 11 9 8 7 8 7 6 5 4 3 3 3 4 5 6
14 13 14 16 15 15 16 17 18 17 17 19 21 17 17 17 18 17 16 15 14 13 11 10 10 11 10 10 9 8 6 6 6 5 5 3 3 2 3 3 4 5 6 7

GFSNGP_925_spd_096.txt.gz
Wind_Speed
16 14 13 12 12 11 11 8 7 12 15 13 8 11 12 11 11 12 14 14 6 6 7 8 18 24 26 28 29 28 28 29 31 33 32 32 33 34 32 31 31 30 29 30
14 15 15 17 17 17 17 15 15 15 19 16 15 13 12 10 9 11 12 16 15 8 6 11 10 21 25 27 30 31 29 29 28 30 31 31 31 32 32 31 30 29 28 29
10 12 14 12 15 16 15 16 15 17 14 14 13 14 11 12 16 15 11 11 15 11 6 5 14 21 24 28 30 32 31 28 29 29 29 29 27 28 29 29 27 27 20 18
5 8 7 9 8 4 5 8 10 13 14 16 12 9 10 13 16 20 22 20 19 15 14 8 8 20 26 27 28 30 29 27 26 26 27 26 26 24 21 24 23 20 16 15
3 6 11 15 10 4 5 6 10 10 14 15 15 12 8 14 16 16 19 17 17 26 27 25 22 17 21 24 26 27 28 27 27 27 25 25 20 24 24 27 24 23 21 21
4 6 4 7 8 7 6 4 9 8 9 10 13 7 9 19 18 17 14 16 19 28 27 26 25 18 11 16 21 18 20 20 25 26 28 29 29 29 28 29 30 28 29 26
10 5 8 6 10 5 3 4 7 10 8 10 10 8 13 15 15 14 14 18 22 22 23 21 23 17 9 20 19 17 22 22 23 30 36 35 32 31 34 37 37 35 36 33
7 5 10 9 8 2 2 4 7 7 6 7 7 8 11 16 12 14 12 15 17 16 17 20 22 18 16 17 16 23 27 29 26 26 34 36 39 34 34 37 34 30 33 31
9 5 10 10 9 8 6 5 6 5 7 9 11 12 13 11 9 8 10 13 15 12 10 13 13 10 15 14 21 27 32 31 31 30 30 31 32 30 33 32 38 24 24 26
4 8 10 14 8 14 11 6 8 8 11 11 12 12 10 7 7 9 11 12 12 9 7 9 12 13 15 19 22 26 32 31 30 33 34 33 31 28 24 23 29 27 21 21
9 12 5 7 9 15 13 8 6 10 8 9 10 8 5 6 8 6 9 13 12 10 10 12 15 17 16 19 27 30 31 30 30 31 32 36 34 27 29 23 26 29 23 24
3 7 1 9 8 5 7 8 11 8 9 7 8 7 6 8 9 10 11 11 14 18 19 17 16 20 20 20 24 28 29 30 28 31 31 33 38 46 43 43 36 37 35 33
5 5 3 5 9 16 11 7 9 8 8 7 8 8 9 8 12 12 7 13 17 18 22 25 27 30 26 26 28 29 30 27 29 32 30 28 30 33 35 38 39 36 31 27
10 8 8 14 10 11 10 10 7 8 10 8 8 10 10 11 10 13 10 9 10 21 27 31 32 30 32 33 32 32 35 29 27 28 31 29 29 27 26 25 25 25 24 24
14 11 9 9 10 13 10 7 7 4 5 7 8 8 11 9 10 14 15 18 19 22 21 24 29 26 28 39 41 33 31 33 28 27 28 28 28 26 24 23 22 21 20 20
12 11 12 12 11 12 13 14 13 9 6 8 8 11 12 14 15 16 15 17 19 17 21 24 26 26 31 35 39 38 34 30 29 26 28 26 26 26 24 21 20 18 17 15
9 12 12 12 12 13 12 11 12 7 10 10 11 11 13 15 16 17 18 23 26 23 26 27 25 30 31 31 30 30 30 28 25 25 26 24 23 23 22 21 20 18 18 19
11 10 11 11 10 10 11 12 11 11 10 15 16 14 14 14 12 15 19 22 27 26 25 26 28 28 29 28 26 24 24 23 23 23 23 24 22 21 21 21 20 18 17 17
12 11 10 10 11 7 7 7 10 12 15 16 17 15 17 18 19 20 21 24 21 21 19 21 23 24 25 24 25 25 26 25 25 24 24 23 21 20 21 20 18 16 15 14
10 12 12 11 13 12 7 10 11 14 15 20 21 19 18 19 22 25 28 27 22 19 17 18 22 24 23 23 24 24 24 23 23 22 23 22 22 23 20 18 16 15 14 13
9 10 10 10 10 11 11 10 12 14 15 19 21 20 21 20 22 22 23 20 21 20 18 19 20 21 20 22 23 24 24 23 22 21 20 19 18 17 16 15 14 13 12 11
8 7 9 9 10 11 12 13 15 18 19 21 23 24 25 23 24 26 23 20 17 18 21 22 22 21 21 21 22 22 22 21 19 19 18 18 16 15 13 12 11 11 10 9
10 9 9 9 10 12 13 15 15 17 17 16 17 18 19 17 16 17 15 18 20 22 23 25 23 22 22 21 21 22 21 20 19 18 16 15 15 12 10 11 10 8 6 6
9 10 11 12 14 15 14 19 23 23 24 24 24 22 21 22 24 24 25 24 23 24 24 23 22 20 21 20 18 18 18 17 16 15 14 12 11 10 8 8 8 6 5 6
9 10 11 12 13 14 17 19 21 21 23 23 22 21 18 17 19 20 22 22 22 23 24 21 20 19 19 17 16 16 15 15 12 11 10 9 7 7 7 6 3 3 4 3
13 13 13 13 13 12 13 14 15 16 17 19 19 19 21 22 22 21 20 18 18 18 18 18 17 17 17 16 15 14 13 9 9 9 7 6 5 4 3 3 4 2 2 3
11 11 12 13 13 13 14 15 15 16 16 16 18 16 17 18 18 17 17 17 17 16 15 14 16 14 13 12 11 8 6 8 7 6 4 3 3 1 1 1 1 2 3 4

GFSNGP_925_spd_099.txt.gz
Wind_Speed
6 9 10 12 10 3 8 12 2 5 7 6 10 10 17 4 13 16 19 22 18 10 3 17 22 26 29 32 36 36 35 33 34 32 33 32 33 34 36 34 34 35 35 34
6 5 8 14 12 9 9 10 5 5 10 3 4 8 5 14 13 16 19 18 18 20 18 17 18 26 31 32 35 37 34 35 32 33 33 34 35 34 36 33 30 34 35 33
3 7 10 6 7 10 11 8 4 5 8 11 7 11 13 13 13 13 14 15 16 16 16 18 23 13 30 32 34 35 34 32 35 34 33 32 31 32 31 33 32 29 29 27
2 5 3 6 8 7 5 4 3 8 13 15 10 5 14 13 12 12 12 14 15 14 18 26 27 24 10 23 37 35 33 32 32 34 35 32 33 34 33 32 30 25 21 20
1 1 8 9 4 4 3 6 8 8 8 9 11 5 6 13 12 9 10 9 10 18 23 25 27 32 18 21 26 29 32 32 32 30 30 32 30 29 28 29 26 25 24 24
1 3 4 0 11 7 5 2 7 8 7 7 8 5 5 11 14 11 10 12 15 21 20 24 29 32 23 16 8 9 22 24 27 32 35 32 31 31 30 31 31 29 28 25
5 3 6 2 10 7 2 2 1 1 4 4 4 2 4 7 10 9 10 13 16 17 16 18 24 23 20 19 19 11 15 19 20 23 28 30 31 28 31 37 40 36 36 32
3 3 6 3 6 2 4 4 3 5 5 7 6 7 7 7 8 9 9 11 15 14 15 19 21 16 13 16 14 18 21 24 26 26 28 33 35 33 30 33 36 36 38 35
7 6 5 3 1 5 2 3 3 7 7 7 6 6 6 7 10 11 12 14 15 13 11 15 18 11 9 9 16 22 27 27 28 30 29 29 34 34 30 29 28 27 26 28
2 3 4 4 2 4 7 4 8 9 8 7 5 5 6 8 8 8 10 12 15 14 11 11 13 11 10 12 18 25 31 28 28 30 30 30 29 26 26 26 25 28 27 26
2 8 15 9 6 5 4 10 11 9 9 7 8 8 7 6 7 6 7 6 13 12 12 10 10 12 12 14 21 25 27 29 30 30 32 34 34 29 30 27 25 31 30 30
1 1 7 6 2 11 8 10 9 9 9 11 11 8 7 5 7 10 9 9 11 14 14 13 12 13 14 18 26 27 27 27 28 31 33 34 39 46 44 40 36 35 34 36
4 8 13 1 10 13 13 11 10 11 10 11 11 9 9 5 9 5 4 8 14 12 13 15 20 21 19 22 28 31 31 30 31 32 32 33 33 36 38 40 37 31 30 24
9 6 6 13 8 14 8 6 13 14 14 12 11 10 8 9 9 7 9 12 16 13 14 15 19 22 26 29 31 32 33 32 33 32 34 33 30 28 27 27 28 27 26 23
11 13 12 10 13 14 13 13 10 7 9 9 12 11 10 9 9 10 12 15 21 19 21 23 23 21 19 23 27 32 33 29 28 28 28 30 34 31 28 29 26 26 23 26
9 11 12 12 12 13 13 13 10 5 9 8 8 11 11 11 11 12 14 13 16 15 15 23 24 21 27 28 31 35 31 33 28 30 28 26 26 27 25 23 23 21 17 18
11 10 10 10 10 11 10 9 10 8 9 8 11 13 13 13 15 16 17 20 23 23 20 24 24 24 27 29 28 28 30 31 29 29 28 25 25 24 23 27 25 25 23 20
10 10 10 9 9 9 8 8 8 9 7 12 14 15 13 13 11 15 18 22 27 27 25 25 26 26 26 27 27 28 26 26 26 26 26 26 25 25 25 25 23 24 24 21
13 11 10 11 13 8 6 6 8 10 11 12 14 14 16 16 18 19 21 23 22 21 21 24 24 25 24 23 25 26 27 28 27 27 28 28 26 24 24 23 24 23 21 19
9 11 12 9 11 11 7 8 9 11 13 17 17 18 18 19 20 23 25 23 20 19 19 21 24 25 24 23 24 25 27 28 28 28 30 29 28 27 26 24 23 22 19 18
7 9 9 9 9 13 13 11 11 13 14 16 18 18 19 20 22 20 21 18 17 19 20 20 21 24 24 24 25 25 26 26 24 24 25 27 28 26 26 24 22 20 18 16
6 6 7 9 10 11 13 14 17 18 18 19 19 21 22 21 24 25 21 18 18 20 22 23 23 22 24 25 27 27 27 26 26 27 26 25 24 24 22 20 19 17 14 12
10 11 12 12 11 13 16 17 17 17 17 18 18 19 19 17 16 16 15 18 21 22 24 24 23 24 24 26 27 27 27 27 26 25 23 22 21 20 18 16 14 12 10 7
11 12 14 15 16 16 14 17 20 21 23 23 22 22 22 22 23 23 23 23 24 24 23 21 22 23 23 23 23 23 23 22 21 20 18 17 16 15 14 12 11 10 9 6
12 14 14 14 12 12 16 17 19 19 21 22 22 21 21 18 20 21 23 23 23 22 22 19 19 20 21 22 22 23 22 20 18 17 16 16 14 12 10 7 6 8 6 3
13 11 12 12 10 12 14 14 14 14 16 18 19 20 22 24 24 21 21 19 19 19 19 18 19 21 21 20 18 18 17 16 14 13 12 10 8 7 6 7 5 3 0 3
12 12 13 15 15 15 15 14 14 14 15 16 18 18 19 20 19 20 19 17 17 18 18 18 17 17 16 15 14 13 13 12 11 10 10 8 5 4 2 3 2 2 3 4

GFSNGP_925_spd_102.txt.gz
Wind_Speed
6 2 3 3 3 4 3 1 1 3 1 5 5 10 1 10 8 11 11 11 13 13 10 10 10 17 18 21 31 31 33 35 35 30 30 31 33 35 34 34 33 33 34 34
2 6 6 2 4 3 4 4 10 9 0 3 3 11 4 4 10 10 10 10 11 12 11 10 16 5 19 22 21 28 33 34 35 36 32 33 33 33 33 34 33 34 34 36
1 8 4 3 2 5 5 9 13 3 2 7 13 12 9 4 5 7 9 8 8 9 9 10 14 16 15 20 23 26 25 28 32 34 36 35 35 34 34 33 31 31 31 32
3 5 0 3 10 2 12 9 11 10 7 10 14 10 8 5 5 5 8 8 8 6 7 15 17 23 21 6 25 26 25 26 28 32 33 31 32 31 30 30 32 32 31 29
1 1 6 4 5 4 3 5 5 8 7 6 6 4 6 7 8 6 7 8 9 14 11 12 17 22 26 20 14 30 35 32 30 28 27 31 31 29 30 29 30 27 25 25
2 1 3 2 5 6 4 3 2 7 6 7 7 4 2 4 8 6 6 12 14 15 14 18 18 19 19 18 19 15 2 22 23 28 28 26 27 29 28 29 27 25 23 22
2 1 6 6 6 6 3 4 1 5 7 7 5 2 1 7 9 8 8 12 16 17 16 16 18 15 13 12 13 12 6 9 17 20 25 26 26 26 29 30 30 29 28 24
3 2 6 4 2 1 3 3 4 5 5 6 5 6 7 8 8 9 11 18 21 18 17 18 20 14 10 10 8 6 9 14 16 22 25 27 30 28 30 34 34 31 32 29
6 6 4 5 4 2 4 2 5 6 4 6 6 5 7 6 7 8 10 13 16 15 16 16 18 17 10 10 6 9 15 21 22 23 26 29 31 32 28 29 27 27 26 25
4 3 3 4 5 4 3 8 6 7 8 7 7 8 7 7 8 8 10 11 14 13 12 13 16 14 11 9 11 17 19 20 24 26 26 27 28 28 28 25 27 29 27 27
3 3 1 4 4 3 10 10 11 11 10 9 9 8 6 7 9 8 12 15 14 13 12 11 11 12 10 9 14 21 21 24 23 28 30 31 29 26 32 28 29 27 33 32
1 7 3 2 9 9 11 6 7 9 9 10 9 7 7 8 9 11 12 14 14 13 12 12 10 11 10 9 14 19 20 21 24 25 30 34 37 42 40 43 40 38 36 35
4 5 9 13 14 11 7 7 7 9 8 9 7 7 9 5 9 10 12 15 15 13 15 16 15 12 10 11 17 23 22 21 25 26 27 29 33 36 36 38 38 37 36 31
14 6 10 14 8 12 12 10 14 13 12 9 10 10 9 8 10 12 11 12 12 15 16 19 18 15 12 16 20 24 27 26 25 25 26 27 28 30 31 31 30 30 28 27
11 10 9 7 11 13 12 10 6 6 5 7 10 9 11 9 10 11 11 11 12 15 16 18 17 16 18 22 23 22 20 20 25 28 27 29 31 30 27 28 29 29 30 31
7 11 12 13 12 11 10 11 7 6 5 5 7 10 11 12 11 10 11 11 11 12 15 18 19 16 26 31 28 29 31 24 25 29 27 28 28 27 27 24 25 23 23 23
4 8 10 10 10 10 9 8 7 5 4 5 7 9 11 12 13 13 15 18 20 21 20 20 19 20 23 29 29 24 26 25 26 25 25 24 25 25 25 23 23 22 20 21
8 8 8 7 8 8 7 8 7 7 5 7 8 10 11 11 9 12 14 18 22 25 22 19 20 22 25 26 28 27 24 22 22 23 24 25 24 24 25 25 23 23 23 22
11 9 10 10 10 8 7 7 7 6 7 9 12 11 11 14 14 15 17 18 17 17 17 19 19 21 23 24 28 27 26 25 23 22 24 24 23 23 24 24 22 21 23 23
8 9 8 9 11 11 8 8 6 8 8 12 15 16 14 14 17 19 21 20 16 13 16 18 20 22 22 23 25 26 27 25 23 22 22 22 22 24 25 24 24 24 23 22
5 8 9 9 9 11 10 8 8 9 10 13 14 14 15 15 16 17 17 14 14 15 16 17 19 20 20 21 21 23 25 26 25 23 24 25 26 25 25 24 23 22 22 20
7 8 9 10 10 11 11 10 11 14 16 17 19 20 21 18 21 23 19 16 16 16 18 20 20 20 20 21 22 23 24 24 24 25 24 24 25 26 25 23 22 20 18 16
9 9 10 11 11 11 14 15 15 16 16 16 16 16 16 15 13 14 12 16 18 19 20 20 19 20 21 23 23 23 24 24 24 24 23 23 23 23 22 19 17 16 14 11
12 12 12 12 12 13 11 14 17 17 18 18 17 17 17 18 19 19 20 20 20 20 19 18 17 18 20 21 22 22 21 21 22 21 21 20 19 18 17 15 13 11 9 8
12 13 13 13 11 9 11 13 16 16 18 18 17 15 16 15 17 19 20 20 19 19 18 15 15 16 18 19 20 19 19 18 18 18 17 16 14 13 12 10 9 8 7 4
9 8 10 11 10 11 10 11 11 11 13 15 16 18 19 20 20 19 18 18 18 17 16 15 16 16 17 17 17 17 17 16 15 14 13 12 11 10 8 8 6 4 1 1
13 13 13 12 12 11 12 12 12 11 12 14 16 15 18 18 17 16 15 15 15 16 16 15 15 15 15 15 15 14 14 12 11 11 10 9 7 5 3 2 2 3 4 4